Time,TemperatureF,DewpointF,PressureIn,WindDirection,WindDirectionDegrees,WindSpeedMPH,WindSpeedGustMPH,Humidity,HourlyPrecipIn,Conditions,Clouds,dailyrainin,SoftwareType,DateUTC
2013-09-11 00:02:00,57.9,23.3,30.12,SSW,198,4.5,4.5,26,0.00,,---,0.00,VWS V14.01,2013-09-11 06:02:00,
2013-09-11 00:03:00,57.7,23.1,30.12,SSW,192,4.0,4.9,26,0.00,,---,0.00,VWS V14.01,2013-09-11 06:03:00,
2013-09-11 00:04:00,57.7,23.1,30.12,SSW,194,2.7,4.0,26,0.00,,---,0.00,VWS V14.01,2013-09-11 06:04:00,
2013-09-11 00:05:00,57.7,23.1,30.12,South,182,2.7,3.6,26,0.00,,---,0.00,VWS V14.01,2013-09-11 06:05:00,
2013-09-11 00:07:00,57.6,23.0,30.12,SSW,193,4.0,5.4,26,0.00,,---,0.00,VWS V14.01,2013-09-11 06:07:00,
2013-09-11 00:08:00,57.6,23.0,30.12,South,186,3.6,4.9,26,0.00,,---,0.00,VWS V14.01,2013-09-11 06:08:00,
2013-09-11 00:09:00,57.4,22.8,30.12,SSW,197,3.6,4.0,26,0.00,,---,0.00,VWS V14.01,2013-09-11 06:09:00,
2013-09-11 00:10:00,57.4,22.8,30.12,SSW,195,3.6,4.5,26,0.00,,---,0.00,VWS V14.01,2013-09-11 06:10:00,
2013-09-11 00:12:00,57.2,22.6,30.12,SSW,196,3.1,4.0,26,0.00,,---,0.00,VWS V14.01,2013-09-11 06:12:00,
2013-09-11 00:13:00,57.2,22.6,30.12,SSW,196,3.6,3.6,26,0.00,,---,0.00,VWS V14.01,2013-09-11 06:13:00,
2013-09-11 00:14:00,57.2,22.6,30.12,South,189,3.1,3.1,26,0.00,,---,0.00,VWS V14.01,2013-09-11 06:14:00,
2013-09-11 00:15:00,57.2,22.6,30.12,SSW,195,3.6,4.9,26,0.00,,---,0.00,VWS V14.01,2013-09-11 06:15:00,
2013-09-11 00:16:00,57.2,22.6,30.12,SSW,195,3.6,4.0,26,0.00,,---,0.00,VWS V14.01,2013-09-11 06:16:00,
2013-09-11 00:17:00,57.0,22.5,30.12,SSW,203,2.7,5.8,26,0.00,,---,0.00,VWS V14.01,2013-09-11 06:17:00,
2013-09-11 00:18:00,57.0,22.5,30.12,SSW,198,3.1,4.5,26,0.00,,---,0.00,VWS V14.01,2013-09-11 06:18:00,
2013-09-11 00:19:00,57.0,22.5,30.12,SSW,198,3.1,4.5,26,0.00,,---,0.00,VWS V14.01,2013-09-11 06:19:00,
2013-09-11 00:20:00,57.0,22.5,30.12,SSW,198,0.0,3.1,26,0.00,,---,0.00,VWS V14.01,2013-09-11 06:20:00,
2013-09-11 00:21:00,57.0,22.5,30.12,SSW,197,3.6,3.6,26,0.00,,---,0.00,VWS V14.01,2013-09-11 06:21:00,
2013-09-11 00:22:00,57.0,23.4,30.12,South,186,3.1,3.6,27,0.00,,---,0.00,VWS V14.01,2013-09-11 06:22:00,
2013-09-11 00:24:00,57.0,23.4,30.12,SSW,193,2.7,4.0,27,0.00,,---,0.00,VWS V14.01,2013-09-11 06:24:00,
2013-09-11 00:25:00,56.8,23.2,30.12,SSW,193,3.1,3.1,27,0.00,,---,0.00,VWS V14.01,2013-09-11 06:25:00,
2013-09-11 00:26:00,56.8,23.2,30.12,SSW,193,2.7,2.7,27,0.00,,---,0.00,VWS V14.01,2013-09-11 06:26:00,
2013-09-11 00:27:00,56.7,23.1,30.12,South,190,3.1,3.1,27,0.00,,---,0.00,VWS V14.01,2013-09-11 06:27:00,
2013-09-11 00:29:00,56.7,23.1,30.12,South,190,2.7,2.7,27,0.00,,---,0.00,VWS V14.01,2013-09-11 06:29:00,
2013-09-11 00:31:00,56.7,23.1,30.12,SSW,206,3.6,3.6,27,0.00,,---,0.00,VWS V14.01,2013-09-11 06:31:00,
2013-09-11 00:33:00,56.5,22.9,30.12,SSW,206,2.2,2.7,27,0.00,,---,0.00,VWS V14.01,2013-09-11 06:33:00,
2013-09-11 00:34:00,56.5,22.9,30.12,South,187,3.1,3.1,27,0.00,,---,0.00,VWS V14.01,2013-09-11 06:34:00,
2013-09-11 00:36:00,56.5,22.9,30.12,SSW,203,3.1,3.6,27,0.00,,---,0.00,VWS V14.01,2013-09-11 06:36:00,
2013-09-11 00:37:00,56.5,22.9,30.12,SSW,193,5.4,5.4,27,0.00,,---,0.00,VWS V14.01,2013-09-11 06:37:00,
2013-09-11 00:38:00,56.5,22.9,30.12,SSW,201,2.7,6.3,27,0.00,,---,0.00,VWS V14.01,2013-09-11 06:38:00,
2013-09-11 00:39:00,56.7,23.1,30.12,SSW,197,5.4,5.4,27,0.00,,---,0.00,VWS V14.01,2013-09-11 06:39:00,
2013-09-11 00:40:00,56.8,23.2,30.12,SSW,193,6.7,6.7,27,0.00,,---,0.00,VWS V14.01,2013-09-11 06:40:00,
2013-09-11 00:41:00,57.0,23.4,30.12,SSW,196,5.8,5.8,27,0.00,,---,0.00,VWS V14.01,2013-09-11 06:41:00,
2013-09-11 00:42:00,57.2,22.6,30.12,South,189,4.9,5.4,26,0.00,,---,0.00,VWS V14.01,2013-09-11 06:42:00,
2013-09-11 00:43:00,57.2,22.6,30.12,SSW,198,4.0,5.4,26,0.00,,---,0.00,VWS V14.01,2013-09-11 06:43:00,
2013-09-11 00:44:00,57.6,23.0,30.12,SSW,198,3.6,5.8,26,0.00,,---,0.00,VWS V14.01,2013-09-11 06:44:00,
2013-09-11 00:45:00,57.6,23.0,30.12,South,191,4.0,4.0,26,0.00,,---,0.00,VWS V14.01,2013-09-11 06:45:00,
2013-09-11 00:46:00,57.6,23.0,30.12,SSW,195,3.6,4.0,26,0.00,,---,0.00,VWS V14.01,2013-09-11 06:46:00,
2013-09-11 00:47:00,57.6,23.0,30.12,SSW,196,3.1,3.6,26,0.00,,---,0.00,VWS V14.01,2013-09-11 06:47:00,
2013-09-11 00:48:00,57.6,23.0,30.12,SSW,193,3.6,3.6,26,0.00,,---,0.00,VWS V14.01,2013-09-11 06:48:00,
2013-09-11 00:49:00,57.6,23.0,30.12,South,188,2.7,3.6,26,0.00,,---,0.00,VWS V14.01,2013-09-11 06:49:00,
2013-09-11 00:51:00,57.6,23.0,30.12,SSW,194,4.0,4.5,26,0.00,,---,0.00,VWS V14.01,2013-09-11 06:51:00,
2013-09-11 00:52:00,57.4,22.8,30.12,SSW,192,2.7,4.0,26,0.00,,---,0.00,VWS V14.01,2013-09-11 06:52:00,
2013-09-11 00:53:00,57.4,22.8,30.12,South,191,3.6,3.6,26,0.00,,---,0.00,VWS V14.01,2013-09-11 06:53:00,
2013-09-11 00:54:00,57.4,22.8,30.12,SSW,192,3.6,3.6,26,0.00,,---,0.00,VWS V14.01,2013-09-11 06:54:00,
2013-09-11 00:56:00,57.2,22.6,30.12,SSW,195,4.0,4.0,26,0.00,,---,0.00,VWS V14.01,2013-09-11 06:56:00,
2013-09-11 00:57:00,57.2,22.6,30.12,SSW,195,4.0,4.0,26,0.00,,---,0.00,VWS V14.01,2013-09-11 06:57:00,
2013-09-11 00:58:00,57.2,22.6,30.12,South,188,3.6,3.6,26,0.00,,---,0.00,VWS V14.01,2013-09-11 06:58:00,
2013-09-11 00:59:00,57.2,22.6,30.12,SSW,194,3.1,3.1,26,0.00,,---,0.00,VWS V14.01,2013-09-11 06:59:00,
2013-09-11 01:02:00,57.2,22.6,30.12,SSW,194,3.1,3.6,26,0.00,,---,0.00,VWS V14.01,2013-09-11 07:02:00,
2013-09-11 01:03:00,57.2,22.6,30.12,SSW,194,2.7,3.1,26,0.00,,---,0.00,VWS V14.01,2013-09-11 07:03:00,
2013-09-11 01:05:00,57.2,22.6,30.12,SSW,194,2.7,3.1,26,0.00,,---,0.00,VWS V14.01,2013-09-11 07:05:00,
2013-09-11 01:07:00,57.0,23.4,30.12,South,188,2.7,2.7,27,0.00,,---,0.00,VWS V14.01,2013-09-11 07:07:00,
2013-09-11 01:08:00,56.8,23.2,30.12,South,188,3.1,3.1,27,0.00,,---,0.00,VWS V14.01,2013-09-11 07:08:00,
2013-09-11 01:10:00,56.8,23.2,30.12,SSE,162,2.7,3.1,27,0.00,,---,0.00,VWS V14.01,2013-09-11 07:10:00,
2013-09-11 01:12:00,56.5,22.9,30.12,South,189,4.0,4.0,27,0.00,,---,0.00,VWS V14.01,2013-09-11 07:12:00,
2013-09-11 01:13:00,56.3,22.8,30.12,SSW,198,3.6,4.0,27,0.00,,---,0.00,VWS V14.01,2013-09-11 07:13:00,
2013-09-11 01:15:00,56.1,22.6,30.12,South,190,3.1,4.0,27,0.00,,---,0.00,VWS V14.01,2013-09-11 07:15:00,
2013-09-11 01:17:00,55.9,22.5,30.12,SSW,193,3.6,4.0,27,0.00,,---,0.00,VWS V14.01,2013-09-11 07:17:00,
2013-09-11 01:18:00,55.9,22.5,30.12,SSW,194,3.6,5.4,27,0.00,,---,0.00,VWS V14.01,2013-09-11 07:18:00,
2013-09-11 01:19:00,55.9,23.3,30.12,SSW,195,4.0,5.4,28,0.00,,---,0.00,VWS V14.01,2013-09-11 07:19:00,
2013-09-11 01:20:00,55.9,23.3,30.12,South,187,3.6,4.9,28,0.00,,---,0.00,VWS V14.01,2013-09-11 07:20:00,
2013-09-11 01:22:00,55.9,23.3,30.12,South,190,3.6,4.0,28,0.00,,---,0.00,VWS V14.01,2013-09-11 07:22:00,
2013-09-11 01:23:00,55.9,23.3,30.12,SSW,193,4.0,4.0,28,0.00,,---,0.00,VWS V14.01,2013-09-11 07:23:00,
2013-09-11 01:24:00,55.9,23.3,30.12,SSW,195,4.0,4.0,28,0.00,,---,0.00,VWS V14.01,2013-09-11 07:24:00,
2013-09-11 01:25:00,55.9,23.3,30.12,SSW,192,4.0,4.0,28,0.00,,---,0.00,VWS V14.01,2013-09-11 07:25:00,
2013-09-11 01:28:00,55.9,23.3,30.12,South,187,4.0,4.0,28,0.00,,---,0.00,VWS V14.01,2013-09-11 07:28:00,
2013-09-11 01:29:00,55.9,23.3,30.12,SSW,193,4.9,4.9,28,0.00,,---,0.00,VWS V14.01,2013-09-11 07:29:00,
2013-09-11 01:30:00,55.9,23.3,30.12,South,189,3.1,4.9,28,0.00,,---,0.00,VWS V14.01,2013-09-11 07:30:00,
2013-09-11 01:33:00,55.9,23.3,30.12,SSW,193,2.7,4.0,28,0.00,,---,0.00,VWS V14.01,2013-09-11 07:33:00,
2013-09-11 01:34:00,55.9,23.3,30.12,SSW,198,2.7,5.4,28,0.00,,---,0.00,VWS V14.01,2013-09-11 07:34:00,
2013-09-11 01:35:00,55.9,23.3,30.12,SSW,198,3.1,3.1,28,0.00,,---,0.00,VWS V14.01,2013-09-11 07:35:00,
2013-09-11 01:38:00,55.9,23.3,30.12,SSW,194,3.1,4.0,28,0.00,,---,0.00,VWS V14.01,2013-09-11 07:38:00,
2013-09-11 01:40:00,55.8,23.2,30.12,SSW,193,3.6,4.0,28,0.00,,---,0.00,VWS V14.01,2013-09-11 07:40:00,
2013-09-11 01:43:00,55.8,24.0,30.12,SSW,204,2.7,3.6,29,0.00,,---,0.00,VWS V14.01,2013-09-11 07:43:00,
2013-09-11 01:45:00,55.8,24.0,30.12,SSW,192,3.1,3.1,29,0.00,,---,0.00,VWS V14.01,2013-09-11 07:45:00,
2013-09-11 01:46:00,55.8,24.0,30.12,South,189,4.9,4.9,29,0.00,,---,0.00,VWS V14.01,2013-09-11 07:46:00,
2013-09-11 01:48:00,55.8,24.0,30.12,SSW,197,4.0,4.9,29,0.00,,---,0.00,VWS V14.01,2013-09-11 07:48:00,
2013-09-11 01:50:00,55.8,23.2,30.12,SSW,202,3.6,3.6,28,0.00,,---,0.00,VWS V14.01,2013-09-11 07:50:00,
2013-09-11 01:51:00,55.8,23.2,30.12,SSW,195,2.7,3.6,28,0.00,,---,0.00,VWS V14.01,2013-09-11 07:51:00,
2013-09-11 01:54:00,55.9,24.2,30.12,South,183,2.7,4.0,29,0.00,,---,0.00,VWS V14.01,2013-09-11 07:54:00,
2013-09-11 01:55:00,55.9,24.2,30.12,South,191,3.1,3.1,29,0.00,,---,0.00,VWS V14.01,2013-09-11 07:55:00,
2013-09-11 01:56:00,55.9,24.2,30.12,South,184,2.2,3.1,29,0.00,,---,0.00,VWS V14.01,2013-09-11 07:56:00,
2013-09-11 01:57:00,55.9,24.2,30.12,South,183,3.1,4.0,29,0.00,,---,0.00,VWS V14.01,2013-09-11 07:57:00,
2013-09-11 01:59:00,55.9,24.2,30.12,South,189,3.6,4.0,29,0.00,,---,0.00,VWS V14.01,2013-09-11 07:59:00,
2013-09-11 02:00:00,55.9,24.2,30.12,SSW,198,4.9,4.9,29,0.00,,---,0.00,VWS V14.01,2013-09-11 08:00:00,
2013-09-11 02:01:00,55.9,24.2,30.12,South,180,5.4,5.4,29,0.00,,---,0.00,VWS V14.01,2013-09-11 08:01:00,
2013-09-11 02:02:00,55.9,24.2,30.12,SSW,193,3.6,5.4,29,0.00,,---,0.00,VWS V14.01,2013-09-11 08:02:00,
2013-09-11 02:04:00,56.1,24.3,30.12,SSW,192,4.0,5.4,29,0.00,,---,0.00,VWS V14.01,2013-09-11 08:04:00,
2013-09-11 02:05:00,55.9,24.2,30.12,SSW,193,4.0,4.0,29,0.00,,---,0.00,VWS V14.01,2013-09-11 08:05:00,
2013-09-11 02:06:00,55.9,24.2,30.12,SSW,199,4.9,5.8,29,0.00,,---,0.00,VWS V14.01,2013-09-11 08:06:00,
2013-09-11 02:07:00,55.9,24.2,30.12,SSW,193,4.9,4.9,29,0.00,,---,0.00,VWS V14.01,2013-09-11 08:07:00,
2013-09-11 02:09:00,55.9,24.2,30.12,South,187,4.0,4.0,29,0.00,,---,0.00,VWS V14.01,2013-09-11 08:09:00,
2013-09-11 02:10:00,55.9,24.2,30.12,SSW,193,2.7,4.0,29,0.00,,---,0.00,VWS V14.01,2013-09-11 08:10:00,
2013-09-11 02:12:00,55.9,24.2,30.12,SSW,192,3.6,4.0,29,0.00,,---,0.00,VWS V14.01,2013-09-11 08:12:00,
2013-09-11 02:14:00,55.9,24.2,30.12,South,190,2.7,2.7,29,0.00,,---,0.00,VWS V14.01,2013-09-11 08:14:00,
2013-09-11 02:15:00,55.8,24.0,30.12,South,186,3.1,3.1,29,0.00,,---,0.00,VWS V14.01,2013-09-11 08:15:00,
2013-09-11 02:17:00,55.6,23.9,30.12,SSW,193,3.6,3.6,29,0.00,,---,0.00,VWS V14.01,2013-09-11 08:17:00,
2013-09-11 02:18:00,55.6,23.9,30.12,SSW,193,2.7,3.6,29,0.00,,---,0.00,VWS V14.01,2013-09-11 08:18:00,
2013-09-11 02:19:00,55.6,23.9,30.12,South,187,2.7,3.6,29,0.00,,---,0.00,VWS V14.01,2013-09-11 08:19:00,
2013-09-11 02:20:00,55.4,23.7,30.12,South,190,2.7,3.1,29,0.00,,---,0.00,VWS V14.01,2013-09-11 08:20:00,
2013-09-11 02:21:00,55.4,24.5,30.12,South,190,2.7,4.0,30,0.00,,---,0.00,VWS V14.01,2013-09-11 08:21:00,
2013-09-11 02:23:00,55.4,24.5,30.12,South,190,2.7,4.0,30,0.00,,---,0.00,VWS V14.01,2013-09-11 08:23:00,
2013-09-11 02:24:00,55.4,24.5,30.12,South,191,2.2,2.7,30,0.00,,---,0.00,VWS V14.01,2013-09-11 08:24:00,
2013-09-11 02:26:00,55.2,24.4,30.12,SSW,203,2.7,4.0,30,0.00,,---,0.00,VWS V14.01,2013-09-11 08:26:00,
2013-09-11 02:28:00,55.2,25.1,30.15,SSW,192,2.7,4.0,31,0.00,,---,0.00,VWS V14.01,2013-09-11 08:28:00,
2013-09-11 02:29:00,55.2,25.9,30.15,South,191,3.6,3.6,32,0.00,,---,0.00,VWS V14.01,2013-09-11 08:29:00,
2013-09-11 02:31:00,55.4,25.3,30.15,South,187,5.8,5.8,31,0.00,,---,0.00,VWS V14.01,2013-09-11 08:31:00,
2013-09-11 02:32:00,55.4,25.3,30.15,SSW,194,3.6,5.8,31,0.00,,---,0.00,VWS V14.01,2013-09-11 08:32:00,
2013-09-11 02:34:00,55.6,25.5,30.15,SSW,200,6.3,6.7,31,0.00,,---,0.00,VWS V14.01,2013-09-11 08:34:00,
2013-09-11 02:36:00,55.6,25.5,30.15,SSW,199,4.9,4.9,31,0.00,,---,0.00,VWS V14.01,2013-09-11 08:36:00,
2013-09-11 02:37:00,55.6,25.5,30.15,SSW,194,4.9,5.8,31,0.00,,---,0.00,VWS V14.01,2013-09-11 08:37:00,
2013-09-11 02:39:00,55.6,25.5,30.15,South,185,2.7,3.1,31,0.00,,---,0.00,VWS V14.01,2013-09-11 08:39:00,
2013-09-11 02:40:00,55.6,25.5,30.15,South,190,2.7,3.1,31,0.00,,---,0.00,VWS V14.01,2013-09-11 08:40:00,
2013-09-11 02:41:00,55.4,25.3,30.15,SSW,203,4.9,4.9,31,0.00,,---,0.00,VWS V14.01,2013-09-11 08:41:00,
2013-09-11 02:42:00,55.4,25.3,30.15,SSW,201,4.9,4.9,31,0.00,,---,0.00,VWS V14.01,2013-09-11 08:42:00,
2013-09-11 02:44:00,55.4,26.0,30.15,SSW,195,4.9,5.8,32,0.00,,---,0.00,VWS V14.01,2013-09-11 08:44:00,
2013-09-11 02:45:00,55.4,26.0,30.15,SSW,197,4.0,4.9,32,0.00,,---,0.00,VWS V14.01,2013-09-11 08:45:00,
2013-09-11 02:46:00,55.4,26.0,30.15,South,191,6.3,6.3,32,0.00,,---,0.00,VWS V14.01,2013-09-11 08:46:00,
2013-09-11 02:47:00,55.6,25.5,30.15,South,191,4.9,6.3,31,0.00,,---,0.00,VWS V14.01,2013-09-11 08:47:00,
2013-09-11 02:49:00,55.6,25.5,30.15,SSW,193,4.9,6.3,31,0.00,,---,0.00,VWS V14.01,2013-09-11 08:49:00,
2013-09-11 02:50:00,55.8,26.4,30.15,SSW,197,4.0,4.9,32,0.00,,---,0.00,VWS V14.01,2013-09-11 08:50:00,
2013-09-11 02:52:00,55.8,26.4,30.15,SSW,193,4.0,4.0,32,0.00,,---,0.00,VWS V14.01,2013-09-11 08:52:00,
2013-09-11 02:53:00,55.9,26.5,30.15,SSW,193,4.0,4.0,32,0.00,,---,0.00,VWS V14.01,2013-09-11 08:53:00,
2013-09-11 02:54:00,55.9,26.5,30.15,South,182,3.6,4.0,32,0.00,,---,0.00,VWS V14.01,2013-09-11 08:54:00,
2013-09-11 02:55:00,55.9,26.5,30.15,SSW,194,4.5,5.4,32,0.00,,---,0.00,VWS V14.01,2013-09-11 08:55:00,
2013-09-11 02:56:00,55.9,26.5,30.15,SSW,193,3.1,5.4,32,0.00,,---,0.00,VWS V14.01,2013-09-11 08:56:00,
2013-09-11 02:57:00,55.9,26.5,30.15,South,177,2.7,2.7,32,0.00,,---,0.00,VWS V14.01,2013-09-11 08:57:00,
2013-09-11 02:58:00,55.9,26.5,30.15,South,182,3.1,4.0,32,0.00,,---,0.00,VWS V14.01,2013-09-11 08:58:00,
2013-09-11 02:59:00,55.9,26.5,30.15,South,175,2.7,4.9,32,0.00,,---,0.00,VWS V14.01,2013-09-11 08:59:00,
2013-09-11 03:01:00,55.9,26.5,30.15,South,180,4.0,4.0,32,0.00,,---,0.00,VWS V14.01,2013-09-11 09:01:00,
2013-09-11 03:02:00,55.9,26.5,30.15,SSW,195,3.1,4.9,32,0.00,,---,0.00,VWS V14.01,2013-09-11 09:02:00,
2013-09-11 03:04:00,55.8,26.4,30.15,SSW,199,2.7,4.9,32,0.00,,---,0.00,VWS V14.01,2013-09-11 09:04:00,
2013-09-11 03:06:00,55.8,26.4,30.15,SSW,193,4.0,4.9,32,0.00,,---,0.00,VWS V14.01,2013-09-11 09:06:00,
2013-09-11 03:07:00,55.8,26.4,30.15,SSW,192,3.6,4.9,32,0.00,,---,0.00,VWS V14.01,2013-09-11 09:07:00,
2013-09-11 03:09:00,55.8,26.4,30.15,SSW,195,4.0,6.3,32,0.00,,---,0.00,VWS V14.01,2013-09-11 09:09:00,
2013-09-11 03:12:00,55.9,26.5,30.15,SSW,196,3.6,4.0,32,0.00,,---,0.00,VWS V14.01,2013-09-11 09:12:00,
2013-09-11 03:14:00,55.9,26.5,30.15,South,188,3.1,3.1,32,0.00,,---,0.00,VWS V14.01,2013-09-11 09:14:00,
2013-09-11 03:17:00,55.9,26.5,30.15,SSW,205,3.6,4.0,32,0.00,,---,0.00,VWS V14.01,2013-09-11 09:17:00,
2013-09-11 03:19:00,55.8,26.4,30.15,SSW,199,3.1,3.1,32,0.00,,---,0.00,VWS V14.01,2013-09-11 09:19:00,
2013-09-11 03:22:00,55.6,27.0,30.15,SSW,197,2.2,3.6,33,0.00,,---,0.00,VWS V14.01,2013-09-11 09:22:00,
2013-09-11 03:23:00,55.6,27.0,30.15,SSW,197,2.7,3.1,33,0.00,,---,0.00,VWS V14.01,2013-09-11 09:23:00,
2013-09-11 03:24:00,55.6,27.0,30.15,SSW,196,3.6,3.6,33,0.00,,---,0.00,VWS V14.01,2013-09-11 09:24:00,
2013-09-11 03:28:00,55.6,27.7,30.15,SSW,204,5.4,5.4,34,0.00,,---,0.00,VWS V14.01,2013-09-11 09:28:00,
2013-09-11 03:29:00,55.4,27.5,30.15,South,185,4.0,6.3,34,0.00,,---,0.00,VWS V14.01,2013-09-11 09:29:00,
2013-09-11 03:30:00,55.4,27.5,30.15,SSW,196,4.0,4.0,34,0.00,,---,0.00,VWS V14.01,2013-09-11 09:30:00,
2013-09-11 03:33:00,55.0,27.9,30.15,SSW,194,6.3,7.6,35,0.00,,---,0.00,VWS V14.01,2013-09-11 09:33:00,
2013-09-11 03:34:00,55.0,27.9,30.15,SSW,193,5.4,5.8,35,0.00,,---,0.00,VWS V14.01,2013-09-11 09:34:00,
2013-09-11 03:35:00,55.0,27.9,30.15,SSW,194,5.4,7.6,35,0.00,,---,0.00,VWS V14.01,2013-09-11 09:35:00,
2013-09-11 03:38:00,55.0,27.9,30.15,SSW,194,3.6,3.6,35,0.00,,---,0.00,VWS V14.01,2013-09-11 09:38:00,
2013-09-11 03:39:00,54.9,27.8,30.15,South,190,5.4,5.4,35,0.00,,---,0.00,VWS V14.01,2013-09-11 09:39:00,
2013-09-11 03:40:00,54.9,27.8,30.15,South,187,4.0,5.4,35,0.00,,---,0.00,VWS V14.01,2013-09-11 09:40:00,
2013-09-11 03:43:00,54.9,27.8,30.15,SSW,196,4.0,4.0,35,0.00,,---,0.00,VWS V14.01,2013-09-11 09:43:00,
2013-09-11 03:44:00,54.7,27.6,30.15,South,187,4.9,4.9,35,0.00,,---,0.00,VWS V14.01,2013-09-11 09:44:00,
2013-09-11 03:45:00,54.7,27.6,30.15,SSW,199,2.7,4.0,35,0.00,,---,0.00,VWS V14.01,2013-09-11 09:45:00,
2013-09-11 03:48:00,54.5,27.4,30.15,SSW,195,3.1,3.6,35,0.00,,---,0.00,VWS V14.01,2013-09-11 09:48:00,
2013-09-11 03:49:00,54.5,27.4,30.15,South,181,3.1,4.0,35,0.00,,---,0.00,VWS V14.01,2013-09-11 09:49:00,
2013-09-11 03:50:00,54.5,28.1,30.15,SSW,193,3.6,4.0,36,0.00,,---,0.00,VWS V14.01,2013-09-11 09:50:00,
2013-09-11 03:54:00,54.3,28.0,30.15,SSW,196,4.0,4.0,36,0.00,,---,0.00,VWS V14.01,2013-09-11 09:54:00,
2013-09-11 03:55:00,54.1,27.8,30.15,SSW,200,2.7,4.0,36,0.00,,---,0.00,VWS V14.01,2013-09-11 09:55:00,
2013-09-11 03:56:00,54.1,27.8,30.15,SSW,200,5.8,5.8,36,0.00,,---,0.00,VWS V14.01,2013-09-11 09:56:00,
2013-09-11 03:59:00,54.1,27.8,30.15,SSW,195,4.0,4.9,36,0.00,,---,0.00,VWS V14.01,2013-09-11 09:59:00,
2013-09-11 04:00:00,54.1,27.8,30.15,SSW,199,5.8,5.8,36,0.00,,---,0.00,VWS V14.01,2013-09-11 10:00:00,
2013-09-11 04:01:00,54.1,27.8,30.15,South,187,4.0,5.8,36,0.00,,---,0.00,VWS V14.01,2013-09-11 10:01:00,
2013-09-11 04:03:00,54.3,28.0,30.15,SSW,193,4.9,4.9,36,0.00,,---,0.00,VWS V14.01,2013-09-11 10:03:00,
2013-09-11 04:04:00,54.5,28.1,30.15,South,188,5.8,5.8,36,0.00,,---,0.00,VWS V14.01,2013-09-11 10:04:00,
2013-09-11 04:05:00,54.5,28.1,30.15,South,180,5.4,5.4,36,0.00,,---,0.00,VWS V14.01,2013-09-11 10:05:00,
2013-09-11 04:06:00,54.5,28.1,30.15,SSW,198,3.6,5.4,36,0.00,,---,0.00,VWS V14.01,2013-09-11 10:06:00,
2013-09-11 04:09:00,54.7,28.3,30.15,SSW,198,2.7,3.1,36,0.00,,---,0.00,VWS V14.01,2013-09-11 10:09:00,
2013-09-11 04:10:00,54.7,28.3,30.15,SSW,203,4.0,4.0,36,0.00,,---,0.00,VWS V14.01,2013-09-11 10:10:00,
2013-09-11 04:11:00,54.7,28.3,30.15,SSW,194,3.1,5.4,36,0.00,,---,0.00,VWS V14.01,2013-09-11 10:11:00,
2013-09-11 04:12:00,54.7,28.3,30.15,SSW,193,4.0,4.0,36,0.00,,---,0.00,VWS V14.01,2013-09-11 10:12:00,
2013-09-11 04:14:00,54.5,28.1,30.15,South,183,2.2,2.7,36,0.00,,---,0.00,VWS V14.01,2013-09-11 10:14:00,
2013-09-11 04:15:00,54.5,28.1,30.15,South,183,2.2,2.2,36,0.00,,---,0.00,VWS V14.01,2013-09-11 10:15:00,
2013-09-11 04:17:00,54.3,28.0,30.15,SSW,196,4.0,4.0,36,0.00,,---,0.00,VWS V14.01,2013-09-11 10:17:00,
2013-09-11 04:18:00,54.3,28.0,30.15,SSW,196,2.7,4.0,36,0.00,,---,0.00,VWS V14.01,2013-09-11 10:18:00,
2013-09-11 04:19:00,54.1,27.8,30.15,South,175,4.9,4.9,36,0.00,,---,0.00,VWS V14.01,2013-09-11 10:19:00,
2013-09-11 04:20:00,54.0,27.6,30.15,SSW,195,2.7,4.9,36,0.00,,---,0.00,VWS V14.01,2013-09-11 10:20:00,
2013-09-11 04:22:00,54.0,28.3,30.15,South,185,3.6,6.3,37,0.00,,---,0.00,VWS V14.01,2013-09-11 10:22:00,
2013-09-11 04:23:00,54.0,28.3,30.15,SSW,197,4.0,4.0,37,0.00,,---,0.00,VWS V14.01,2013-09-11 10:23:00,
2013-09-11 04:24:00,54.0,28.3,30.15,SSW,199,4.0,4.0,37,0.00,,---,0.00,VWS V14.01,2013-09-11 10:24:00,
2013-09-11 04:25:00,54.1,28.5,30.15,SSW,201,4.0,5.8,37,0.00,,---,0.00,VWS V14.01,2013-09-11 10:25:00,
2013-09-11 04:28:00,54.1,28.5,30.15,SSW,198,3.1,3.1,37,0.00,,---,0.00,VWS V14.01,2013-09-11 10:28:00,
2013-09-11 04:29:00,54.3,28.6,30.15,South,186,4.9,4.9,37,0.00,,---,0.00,VWS V14.01,2013-09-11 10:29:00,
2013-09-11 04:30:00,54.3,28.6,30.15,South,188,2.7,2.7,37,0.00,,---,0.00,VWS V14.01,2013-09-11 10:30:00,
2013-09-11 04:31:00,54.3,28.6,30.15,South,188,2.7,2.7,37,0.00,,---,0.00,VWS V14.01,2013-09-11 10:31:00,
2013-09-11 04:34:00,54.1,28.5,30.15,SSW,196,4.0,4.0,37,0.00,,---,0.00,VWS V14.01,2013-09-11 10:34:00,
2013-09-11 04:35:00,54.0,28.3,30.15,South,182,5.4,5.4,37,0.00,,---,0.00,VWS V14.01,2013-09-11 10:35:00,
2013-09-11 04:36:00,54.0,28.3,30.15,SSW,198,4.0,5.4,37,0.00,,---,0.00,VWS V14.01,2013-09-11 10:36:00,
2013-09-11 04:39:00,53.6,28.0,30.15,SSW,196,3.6,5.4,37,0.00,,---,0.00,VWS V14.01,2013-09-11 10:39:00,
2013-09-11 04:41:00,53.4,28.5,30.15,SSW,199,5.8,5.8,38,0.00,,---,0.00,VWS V14.01,2013-09-11 10:41:00,
2013-09-11 04:42:00,53.4,28.5,30.15,SSW,195,3.6,4.0,38,0.00,,---,0.00,VWS V14.01,2013-09-11 10:42:00,
2013-09-11 04:44:00,53.4,28.5,30.15,SSW,195,3.1,5.4,38,0.00,,---,0.00,VWS V14.01,2013-09-11 10:44:00,
2013-09-11 04:45:00,53.4,28.5,30.15,SSW,195,3.1,3.6,38,0.00,,---,0.00,VWS V14.01,2013-09-11 10:45:00,
2013-09-11 04:46:00,53.4,28.5,30.15,South,182,3.6,3.6,38,0.00,,---,0.00,VWS V14.01,2013-09-11 10:46:00,
2013-09-11 04:48:00,53.4,28.5,30.15,South,190,3.1,3.6,38,0.00,,---,0.00,VWS V14.01,2013-09-11 10:48:00,
2013-09-11 04:49:00,53.4,28.5,30.15,SSW,196,3.6,4.9,38,0.00,,---,0.00,VWS V14.01,2013-09-11 10:49:00,
2013-09-11 04:51:00,53.4,28.5,30.15,South,180,5.4,5.4,38,0.00,,---,0.00,VWS V14.01,2013-09-11 10:51:00,
2013-09-11 04:53:00,53.6,28.6,30.15,SSW,200,4.0,4.9,38,0.00,,---,0.00,VWS V14.01,2013-09-11 10:53:00,
2013-09-11 04:54:00,53.6,28.6,30.15,SSW,195,3.1,5.4,38,0.00,,---,0.00,VWS V14.01,2013-09-11 10:54:00,
2013-09-11 04:56:00,53.6,28.6,30.15,SSW,194,2.7,4.0,38,0.00,,---,0.00,VWS V14.01,2013-09-11 10:56:00,
2013-09-11 04:57:00,53.6,28.6,30.15,SSW,196,4.0,4.0,38,0.00,,---,0.00,VWS V14.01,2013-09-11 10:57:00,
2013-09-11 04:58:00,53.6,28.6,30.15,South,191,3.6,4.0,38,0.00,,---,0.00,VWS V14.01,2013-09-11 10:58:00,
2013-09-11 04:59:00,53.6,28.6,30.15,SSW,196,4.9,4.9,38,0.00,,---,0.00,VWS V14.01,2013-09-11 10:59:00,
2013-09-11 05:01:00,53.6,28.6,30.15,South,191,3.1,4.9,38,0.00,,---,0.00,VWS V14.01,2013-09-11 11:01:00,
2013-09-11 05:02:00,53.6,28.6,30.15,SSW,204,4.0,5.4,38,0.00,,---,0.00,VWS V14.01,2013-09-11 11:02:00,
2013-09-11 05:03:00,53.6,28.6,30.15,SSW,195,5.4,5.4,38,0.00,,---,0.00,VWS V14.01,2013-09-11 11:03:00,
2013-09-11 05:04:00,53.6,28.6,30.15,SSW,195,5.4,5.8,38,0.00,,---,0.00,VWS V14.01,2013-09-11 11:04:00,
2013-09-11 05:06:00,53.8,28.8,30.15,South,186,3.6,3.6,38,0.00,,---,0.00,VWS V14.01,2013-09-11 11:06:00,
2013-09-11 05:07:00,53.8,28.8,30.15,South,187,4.5,5.4,38,0.00,,---,0.00,VWS V14.01,2013-09-11 11:07:00,
2013-09-11 05:09:00,53.8,28.8,30.15,SSW,195,2.7,4.9,38,0.00,,---,0.00,VWS V14.01,2013-09-11 11:09:00,
2013-09-11 05:11:00,54.0,29.0,30.15,SSW,196,4.9,4.9,38,0.00,,---,0.00,VWS V14.01,2013-09-11 11:11:00,
2013-09-11 05:12:00,54.0,29.0,30.15,South,183,5.4,5.8,38,0.00,,---,0.00,VWS V14.01,2013-09-11 11:12:00,
2013-09-11 05:14:00,54.0,29.0,30.15,South,187,5.8,5.8,38,0.00,,---,0.00,VWS V14.01,2013-09-11 11:14:00,
2013-09-11 05:15:00,54.0,29.0,30.15,SSW,193,4.0,5.8,38,0.00,,---,0.00,VWS V14.01,2013-09-11 11:15:00,
2013-09-11 05:16:00,54.0,29.0,30.15,SSW,205,2.7,4.0,38,0.00,,---,0.00,VWS V14.01,2013-09-11 11:16:00,
2013-09-11 05:18:00,53.8,28.8,30.15,SSW,193,4.0,4.0,38,0.00,,---,0.00,VWS V14.01,2013-09-11 11:18:00,
2013-09-11 05:19:00,53.8,28.8,30.15,SSW,195,3.6,3.6,38,0.00,,---,0.00,VWS V14.01,2013-09-11 11:19:00,
2013-09-11 05:20:00,53.8,28.8,30.15,South,184,2.7,3.6,38,0.00,,---,0.00,VWS V14.01,2013-09-11 11:20:00,
2013-09-11 05:21:00,53.6,29.3,30.15,South,183,2.7,2.7,39,0.00,,---,0.00,VWS V14.01,2013-09-11 11:21:00,
2013-09-11 05:23:00,53.6,29.3,30.15,SSW,196,4.0,4.0,39,0.00,,---,0.00,VWS V14.01,2013-09-11 11:23:00,
2013-09-11 05:24:00,53.6,29.3,30.15,SSW,198,5.4,5.4,39,0.00,,---,0.00,VWS V14.01,2013-09-11 11:24:00,
2013-09-11 05:25:00,53.6,29.3,30.15,SSW,196,6.3,6.3,39,0.00,,---,0.00,VWS V14.01,2013-09-11 11:25:00,
2013-09-11 05:26:00,53.6,29.3,30.15,SSW,197,4.9,5.8,39,0.00,,---,0.00,VWS V14.01,2013-09-11 11:26:00,
2013-09-11 05:28:00,53.6,29.3,30.15,South,185,4.0,5.8,39,0.00,,---,0.00,VWS V14.01,2013-09-11 11:28:00,
2013-09-11 05:29:00,53.6,29.3,30.15,SSW,197,6.3,6.3,39,0.00,,---,0.00,VWS V14.01,2013-09-11 11:29:00,
2013-09-11 05:30:00,53.6,29.3,30.15,South,189,5.4,6.3,39,0.00,,---,0.00,VWS V14.01,2013-09-11 11:30:00,
2013-09-11 05:31:00,53.6,29.3,30.15,SSW,195,3.1,4.9,39,0.00,,---,0.00,VWS V14.01,2013-09-11 11:31:00,
2013-09-11 05:34:00,53.6,29.3,30.15,SSW,196,3.6,3.6,39,0.00,,---,0.00,VWS V14.01,2013-09-11 11:34:00,
2013-09-11 05:35:00,53.4,29.7,30.15,South,187,3.6,3.6,40,0.00,,---,0.00,VWS V14.01,2013-09-11 11:35:00,
2013-09-11 05:37:00,53.2,29.6,30.15,South,188,2.7,2.7,40,0.00,,---,0.00,VWS V14.01,2013-09-11 11:37:00,
2013-09-11 05:39:00,53.1,29.4,30.15,SSW,196,3.6,4.0,40,0.00,,---,0.00,VWS V14.01,2013-09-11 11:39:00,
2013-09-11 05:40:00,52.9,29.2,30.15,SSW,195,4.0,4.0,40,0.00,,---,0.00,VWS V14.01,2013-09-11 11:40:00,
2013-09-11 05:41:00,52.9,29.8,30.15,SSW,192,3.1,4.9,41,0.00,,---,0.00,VWS V14.01,2013-09-11 11:41:00,
2013-09-11 05:42:00,52.7,29.7,30.15,SSW,197,4.0,4.0,41,0.00,,---,0.00,VWS V14.01,2013-09-11 11:42:00,
2013-09-11 05:44:00,52.7,29.7,30.15,SSW,196,3.1,3.6,41,0.00,,---,0.00,VWS V14.01,2013-09-11 11:44:00,
2013-09-11 05:45:00,52.7,29.7,30.15,SSW,205,3.6,4.9,41,0.00,,---,0.00,VWS V14.01,2013-09-11 11:45:00,
2013-09-11 05:46:00,52.7,29.7,30.15,SSW,200,4.0,4.9,41,0.00,,---,0.00,VWS V14.01,2013-09-11 11:46:00,
2013-09-11 05:47:00,52.9,29.8,30.15,SSW,194,3.1,4.0,41,0.00,,---,0.00,VWS V14.01,2013-09-11 11:47:00,
2013-09-11 05:49:00,52.9,29.8,30.15,South,182,4.9,4.9,41,0.00,,---,0.00,VWS V14.01,2013-09-11 11:49:00,
2013-09-11 05:50:00,52.9,29.8,30.15,South,187,4.9,4.9,41,0.00,,---,0.00,VWS V14.01,2013-09-11 11:50:00,
2013-09-11 05:51:00,52.9,29.8,30.15,SSW,198,5.8,5.8,41,0.00,,---,0.00,VWS V14.01,2013-09-11 11:51:00,
2013-09-11 05:52:00,52.9,29.8,30.15,SSW,195,3.1,5.8,41,0.00,,---,0.00,VWS V14.01,2013-09-11 11:52:00,
2013-09-11 05:55:00,52.9,29.8,30.15,South,188,4.0,5.4,41,0.00,,---,0.00,VWS V14.01,2013-09-11 11:55:00,
2013-09-11 05:56:00,52.9,29.8,30.15,SSW,195,3.6,5.4,41,0.00,,---,0.00,VWS V14.01,2013-09-11 11:56:00,
2013-09-11 05:57:00,52.9,29.8,30.15,SSW,193,3.1,4.9,41,0.00,,---,0.00,VWS V14.01,2013-09-11 11:57:00,
2013-09-11 06:00:00,52.9,29.8,30.15,SSW,194,3.6,3.6,41,0.00,,---,0.00,VWS V14.01,2013-09-11 12:00:00,
2013-09-11 06:01:00,52.7,29.7,30.15,SSW,199,3.6,3.6,41,0.00,,---,0.00,VWS V14.01,2013-09-11 12:01:00,
2013-09-11 06:02:00,52.7,29.7,30.15,SSW,196,5.8,5.8,41,0.00,,---,0.00,VWS V14.01,2013-09-11 12:02:00,
2013-09-11 06:05:00,52.5,30.1,30.15,South,186,4.0,5.4,42,0.00,,---,0.00,VWS V14.01,2013-09-11 12:05:00,
2013-09-11 06:06:00,52.5,30.1,30.15,SSW,212,4.9,4.9,42,0.00,,---,0.00,VWS V14.01,2013-09-11 12:06:00,
2013-09-11 06:07:00,52.5,30.1,30.15,South,185,6.3,6.3,42,0.00,,---,0.00,VWS V14.01,2013-09-11 12:07:00,
2013-09-11 06:11:00,52.9,29.8,30.15,SSW,202,5.4,5.4,41,0.00,,---,0.00,VWS V14.01,2013-09-11 12:11:00,
2013-09-11 06:12:00,52.9,29.8,30.15,SSW,196,3.6,5.4,41,0.00,,---,0.00,VWS V14.01,2013-09-11 12:12:00,
2013-09-11 06:16:00,52.9,29.8,30.15,SSW,193,2.7,3.6,41,0.00,,---,0.00,VWS V14.01,2013-09-11 12:16:00,
2013-09-11 06:17:00,52.9,30.4,30.15,South,191,4.0,4.0,42,0.00,,---,0.00,VWS V14.01,2013-09-11 12:17:00,
2013-09-11 06:21:00,52.7,30.3,30.15,SSW,199,2.7,3.6,42,0.00,,---,0.00,VWS V14.01,2013-09-11 12:21:00,
2013-09-11 06:22:00,52.7,30.3,30.15,SSW,199,3.1,3.6,42,0.00,,---,0.00,VWS V14.01,2013-09-11 12:22:00,
2013-09-11 06:23:00,52.9,30.4,30.15,SSW,198,4.0,4.0,42,0.00,,---,0.00,VWS V14.01,2013-09-11 12:23:00,
2013-09-11 06:26:00,52.9,30.4,30.15,SSW,195,4.9,4.9,42,0.00,,---,0.00,VWS V14.01,2013-09-11 12:26:00,
2013-09-11 06:27:00,52.9,30.4,30.15,SSW,198,3.1,4.9,42,0.00,,---,0.00,VWS V14.01,2013-09-11 12:27:00,
2013-09-11 06:28:00,52.9,30.4,30.15,SSW,197,2.7,4.0,42,0.00,,---,0.00,VWS V14.01,2013-09-11 12:28:00,
2013-09-11 06:31:00,52.9,30.4,30.15,SSW,192,3.6,3.6,42,0.00,,---,0.00,VWS V14.01,2013-09-11 12:31:00,
2013-09-11 06:32:00,53.1,30.6,30.15,South,188,3.1,3.6,42,0.00,,---,0.00,VWS V14.01,2013-09-11 12:32:00,
2013-09-11 06:33:00,53.1,30.6,30.15,South,190,3.1,3.6,42,0.00,,---,0.00,VWS V14.01,2013-09-11 12:33:00,
2013-09-11 06:36:00,53.1,30.6,30.15,SSW,196,3.6,4.0,42,0.00,,---,0.00,VWS V14.01,2013-09-11 12:36:00,
2013-09-11 06:37:00,53.1,30.6,30.15,South,191,2.2,3.1,42,0.00,,---,0.00,VWS V14.01,2013-09-11 12:37:00,
2013-09-11 06:38:00,53.2,30.8,30.15,South,181,3.1,3.1,42,0.00,,---,0.00,VWS V14.01,2013-09-11 12:38:00,
2013-09-11 06:39:00,53.2,30.8,30.15,South,190,3.1,4.0,42,0.00,,---,0.00,VWS V14.01,2013-09-11 12:39:00,
2013-09-11 06:41:00,53.1,30.6,30.15,South,187,5.4,5.4,42,0.00,,---,0.00,VWS V14.01,2013-09-11 12:41:00,
2013-09-11 06:43:00,53.1,30.6,30.15,SSW,195,5.4,5.8,42,0.00,,---,0.00,VWS V14.01,2013-09-11 12:43:00,
2013-09-11 06:44:00,53.1,30.6,30.18,South,188,3.6,5.4,42,0.00,,---,0.00,VWS V14.01,2013-09-11 12:44:00,
2013-09-11 06:47:00,53.1,30.6,30.18,SSW,196,3.6,5.4,42,0.00,,---,0.00,VWS V14.01,2013-09-11 12:47:00,
2013-09-11 06:48:00,53.1,30.6,30.18,South,188,3.6,4.0,42,0.00,,---,0.00,VWS V14.01,2013-09-11 12:48:00,
2013-09-11 06:49:00,53.1,30.6,30.18,South,186,3.6,3.6,42,0.00,,---,0.00,VWS V14.01,2013-09-11 12:49:00,
2013-09-11 06:52:00,52.9,30.4,30.18,South,187,4.0,4.0,42,0.00,,---,0.00,VWS V14.01,2013-09-11 12:52:00,
2013-09-11 06:53:00,52.7,30.9,30.18,South,181,5.4,6.3,43,0.00,,---,0.00,VWS V14.01,2013-09-11 12:53:00,
2013-09-11 06:54:00,52.5,30.7,30.18,SSW,195,4.0,5.4,43,0.00,,---,0.00,VWS V14.01,2013-09-11 12:54:00,
2013-09-11 06:57:00,52.3,30.5,30.18,SSW,200,3.6,4.9,43,0.00,,---,0.00,VWS V14.01,2013-09-11 12:57:00,
2013-09-11 06:58:00,52.3,30.5,30.18,SSW,195,4.0,4.9,43,0.00,,---,0.00,VWS V14.01,2013-09-11 12:58:00,
2013-09-11 06:59:00,52.3,30.5,30.18,SSW,199,5.4,5.4,43,0.00,,---,0.00,VWS V14.01,2013-09-11 12:59:00,
2013-09-11 07:02:00,52.2,30.9,30.18,SSW,205,4.9,4.9,44,0.00,,---,0.00,VWS V14.01,2013-09-11 13:02:00,
2013-09-11 07:03:00,52.0,30.8,30.18,SSW,192,4.0,4.0,44,0.00,,---,0.00,VWS V14.01,2013-09-11 13:03:00,
2013-09-11 07:04:00,52.0,30.8,30.18,SSW,202,4.0,4.0,44,0.00,,---,0.00,VWS V14.01,2013-09-11 13:04:00,
2013-09-11 07:07:00,52.0,31.3,30.18,SSW,199,4.0,4.5,45,0.00,,---,0.00,VWS V14.01,2013-09-11 13:07:00,
2013-09-11 07:08:00,52.0,31.3,30.18,South,186,4.0,4.0,45,0.00,,---,0.00,VWS V14.01,2013-09-11 13:08:00,
2013-09-11 07:09:00,52.0,31.3,30.18,SSW,195,3.6,3.6,45,0.00,,---,0.00,VWS V14.01,2013-09-11 13:09:00,
2013-09-11 07:10:00,52.0,31.3,30.18,SSW,197,3.6,3.6,45,0.00,,---,0.00,VWS V14.01,2013-09-11 13:10:00,
2013-09-11 07:12:00,52.0,31.3,30.18,SSW,197,3.6,4.0,45,0.00,,---,0.00,VWS V14.01,2013-09-11 13:12:00,
2013-09-11 07:13:00,52.2,31.5,30.18,SSW,198,4.0,4.9,45,0.00,,---,0.00,VWS V14.01,2013-09-11 13:13:00,
2013-09-11 07:14:00,52.2,31.5,30.18,South,188,4.9,4.9,45,0.00,,---,0.00,VWS V14.01,2013-09-11 13:14:00,
2013-09-11 07:15:00,52.2,31.5,30.18,SSW,204,5.4,5.4,45,0.00,,---,0.00,VWS V14.01,2013-09-11 13:15:00,
2013-09-11 07:17:00,52.2,31.5,30.18,SSW,197,4.0,4.0,45,0.00,,---,0.00,VWS V14.01,2013-09-11 13:17:00,
2013-09-11 07:18:00,52.2,30.9,30.18,South,181,5.4,5.4,44,0.00,,---,0.00,VWS V14.01,2013-09-11 13:18:00,
2013-09-11 07:19:00,52.2,30.9,30.18,SSW,206,5.4,5.4,44,0.00,,---,0.00,VWS V14.01,2013-09-11 13:19:00,
2013-09-11 07:20:00,52.2,30.9,30.18,SSW,199,4.0,5.4,44,0.00,,---,0.00,VWS V14.01,2013-09-11 13:20:00,
2013-09-11 07:22:00,52.2,30.9,30.18,SSW,198,2.2,3.1,44,0.00,,---,0.00,VWS V14.01,2013-09-11 13:22:00,
2013-09-11 07:23:00,52.2,30.9,30.18,SSW,193,2.7,2.7,44,0.00,,---,0.00,VWS V14.01,2013-09-11 13:23:00,
2013-09-11 07:24:00,52.0,31.3,30.18,South,175,3.1,4.0,45,0.00,,---,0.00,VWS V14.01,2013-09-11 13:24:00,
2013-09-11 07:25:00,52.0,31.3,30.18,South,191,3.6,4.0,45,0.00,,---,0.00,VWS V14.01,2013-09-11 13:25:00,
2013-09-11 07:26:00,52.0,31.3,30.18,South,178,3.6,4.9,45,0.00,,---,0.00,VWS V14.01,2013-09-11 13:26:00,
2013-09-11 07:27:00,52.2,31.5,30.18,SSW,199,4.9,4.9,45,0.00,,---,0.00,VWS V14.01,2013-09-11 13:27:00,
2013-09-11 07:28:00,52.2,31.5,30.18,SSW,196,3.6,3.6,45,0.00,,---,0.00,VWS V14.01,2013-09-11 13:28:00,
2013-09-11 07:30:00,52.3,31.1,30.18,SSW,198,4.9,4.9,44,0.00,,---,0.00,VWS V14.01,2013-09-11 13:30:00,
2013-09-11 07:31:00,52.5,31.2,30.18,SSW,194,3.1,4.9,44,0.00,,---,0.00,VWS V14.01,2013-09-11 13:31:00,
2013-09-11 07:32:00,52.5,31.2,30.18,South,182,0.0,3.1,44,0.00,,---,0.00,VWS V14.01,2013-09-11 13:32:00,
2013-09-11 07:34:00,52.9,31.6,30.18,SSW,192,4.0,6.3,44,0.00,,---,0.00,VWS V14.01,2013-09-11 13:34:00,
2013-09-11 07:35:00,53.1,31.2,30.18,SSW,200,4.0,4.0,43,0.00,,---,0.00,VWS V14.01,2013-09-11 13:35:00,
2013-09-11 07:36:00,53.1,31.2,30.18,SSW,193,2.2,4.0,43,0.00,,---,0.00,VWS V14.01,2013-09-11 13:36:00,
2013-09-11 07:37:00,53.2,31.3,30.18,South,188,2.2,2.7,43,0.00,,---,0.00,VWS V14.01,2013-09-11 13:37:00,
2013-09-11 07:39:00,53.4,31.5,30.18,South,188,3.1,3.1,43,0.00,,---,0.00,VWS V14.01,2013-09-11 13:39:00,
2013-09-11 07:40:00,53.4,31.5,30.18,South,185,3.6,3.6,43,0.00,,---,0.00,VWS V14.01,2013-09-11 13:40:00,
2013-09-11 07:41:00,53.4,31.5,30.18,SSW,203,4.0,4.0,43,0.00,,---,0.00,VWS V14.01,2013-09-11 13:41:00,
2013-09-11 07:42:00,53.6,31.1,30.18,SSW,194,4.0,4.0,42,0.00,,---,0.00,VWS V14.01,2013-09-11 13:42:00,
2013-09-11 07:44:00,53.6,31.1,30.18,SSW,200,4.0,5.4,42,0.00,,---,0.00,VWS V14.01,2013-09-11 13:44:00,
2013-09-11 07:46:00,53.6,31.1,30.18,South,190,3.1,3.1,42,0.00,,---,0.00,VWS V14.01,2013-09-11 13:46:00,
2013-09-11 07:47:00,53.6,31.1,30.18,South,184,4.0,5.4,42,0.00,,---,0.00,VWS V14.01,2013-09-11 13:47:00,
2013-09-11 07:49:00,53.6,31.1,30.18,South,178,2.7,3.6,42,0.00,,---,0.00,VWS V14.01,2013-09-11 13:49:00,
2013-09-11 07:51:00,53.6,31.1,30.18,South,189,4.0,4.0,42,0.00,,---,0.00,VWS V14.01,2013-09-11 13:51:00,
2013-09-11 07:53:00,53.6,31.1,30.18,South,184,2.7,4.0,42,0.00,,---,0.00,VWS V14.01,2013-09-11 13:53:00,
2013-09-11 07:54:00,53.6,31.1,30.18,SSW,197,3.6,3.6,42,0.00,,---,0.00,VWS V14.01,2013-09-11 13:54:00,
2013-09-11 07:56:00,53.8,31.2,30.18,SSW,192,2.7,3.1,42,0.00,,---,0.00,VWS V14.01,2013-09-11 13:56:00,
2013-09-11 07:57:00,53.8,31.2,30.18,SSW,192,2.7,3.1,42,0.00,,---,0.00,VWS V14.01,2013-09-11 13:57:00,
2013-09-11 07:58:00,53.8,31.2,30.18,South,191,4.0,4.0,42,0.00,,---,0.00,VWS V14.01,2013-09-11 13:58:00,
2013-09-11 07:59:00,54.0,31.4,30.15,SSW,194,2.2,3.6,42,0.00,,---,0.00,VWS V14.01,2013-09-11 13:59:00,
2013-09-11 08:01:00,54.3,31.7,30.15,South,186,2.7,2.7,42,0.00,,---,0.00,VWS V14.01,2013-09-11 14:01:00,
2013-09-11 08:03:00,54.5,31.9,30.15,South,186,3.1,4.9,42,0.00,,---,0.00,VWS V14.01,2013-09-11 14:03:00,
2013-09-11 08:04:00,54.5,31.3,30.15,South,187,3.1,3.1,41,0.00,,---,0.00,VWS V14.01,2013-09-11 14:04:00,
2013-09-11 08:07:00,54.7,31.5,30.15,South,186,3.6,4.0,41,0.00,,---,0.00,VWS V14.01,2013-09-11 14:07:00,
2013-09-11 08:08:00,54.7,31.5,30.15,South,184,3.1,3.1,41,0.00,,---,0.00,VWS V14.01,2013-09-11 14:08:00,
2013-09-11 08:09:00,54.9,31.6,30.15,SSW,195,4.0,4.0,41,0.00,,---,0.00,VWS V14.01,2013-09-11 14:09:00,
2013-09-11 08:12:00,55.2,32.0,30.15,SSW,196,4.9,4.9,41,0.00,,---,0.00,VWS V14.01,2013-09-11 14:12:00,
2013-09-11 08:13:00,55.4,31.5,30.15,SSW,198,4.0,4.5,40,0.00,,---,0.00,VWS V14.01,2013-09-11 14:13:00,
2013-09-11 08:14:00,55.4,31.5,30.18,SSW,192,3.6,4.0,40,0.00,,---,0.00,VWS V14.01,2013-09-11 14:14:00,
2013-09-11 08:17:00,55.8,31.8,30.18,SSW,206,3.1,3.1,40,0.00,,---,0.00,VWS V14.01,2013-09-11 14:17:00,
2013-09-11 08:18:00,56.1,32.2,30.18,SSW,205,3.1,3.1,40,0.00,,---,0.00,VWS V14.01,2013-09-11 14:18:00,
2013-09-11 08:19:00,56.1,32.2,30.18,South,181,2.7,3.1,40,0.00,,---,0.00,VWS V14.01,2013-09-11 14:19:00,
2013-09-11 08:22:00,56.5,31.8,30.18,SSW,193,4.0,4.9,39,0.00,,---,0.00,VWS V14.01,2013-09-11 14:22:00,
2013-09-11 08:23:00,56.7,32.0,30.18,South,188,2.7,3.1,39,0.00,,---,0.00,VWS V14.01,2013-09-11 14:23:00,
2013-09-11 08:24:00,56.8,32.2,30.18,South,188,2.2,2.2,39,0.00,,---,0.00,VWS V14.01,2013-09-11 14:24:00,
2013-09-11 08:25:00,56.8,32.2,30.18,South,188,0.0,2.2,39,0.00,,---,0.00,VWS V14.01,2013-09-11 14:25:00,
2013-09-11 08:27:00,57.4,32.0,30.18,South,188,2.7,2.7,38,0.00,,---,0.00,VWS V14.01,2013-09-11 14:27:00,
2013-09-11 08:28:00,57.6,32.2,30.18,SSW,193,3.6,4.0,38,0.00,,---,0.00,VWS V14.01,2013-09-11 14:28:00,
2013-09-11 08:29:00,57.7,31.7,30.18,SSW,197,3.6,4.0,37,0.00,,---,0.00,VWS V14.01,2013-09-11 14:29:00,
2013-09-11 08:30:00,57.9,31.8,30.18,SSW,194,2.7,4.0,37,0.00,,---,0.00,VWS V14.01,2013-09-11 14:30:00,
2013-09-11 08:33:00,58.3,32.2,30.18,South,189,3.1,3.1,37,0.00,,---,0.00,VWS V14.01,2013-09-11 14:33:00,
2013-09-11 08:34:00,58.5,32.3,30.18,South,189,2.7,3.1,37,0.00,,---,0.00,VWS V14.01,2013-09-11 14:34:00,
2013-09-11 08:35:00,58.6,32.5,30.18,South,189,2.2,2.7,37,0.00,,---,0.00,VWS V14.01,2013-09-11 14:35:00,
2013-09-11 08:38:00,59.0,32.8,30.18,South,188,0.0,0.0,37,0.00,,---,0.00,VWS V14.01,2013-09-11 14:38:00,
2013-09-11 08:39:00,59.2,33.0,30.18,South,188,2.2,2.7,37,0.00,,---,0.00,VWS V14.01,2013-09-11 14:39:00,
2013-09-11 08:40:00,59.4,32.4,30.18,South,188,2.7,2.7,36,0.00,,---,0.00,VWS V14.01,2013-09-11 14:40:00,
2013-09-11 08:41:00,59.4,32.4,30.18,South,188,0.0,2.7,36,0.00,,---,0.00,VWS V14.01,2013-09-11 14:41:00,
2013-09-11 08:43:00,59.7,33.4,30.18,South,187,0.0,0.0,37,0.00,,---,0.00,VWS V14.01,2013-09-11 14:43:00,
2013-09-11 08:44:00,59.9,33.6,30.18,South,187,0.0,0.0,37,0.00,,---,0.00,VWS V14.01,2013-09-11 14:44:00,
2013-09-11 08:45:00,60.1,33.8,30.18,South,187,0.0,0.0,37,0.00,,---,0.00,VWS V14.01,2013-09-11 14:45:00,
2013-09-11 08:46:00,60.3,33.2,30.18,South,187,2.7,2.7,36,0.00,,---,0.00,VWS V14.01,2013-09-11 14:46:00,
2013-09-11 08:48:00,60.4,33.4,30.18,South,187,0.0,2.2,36,0.00,,---,0.00,VWS V14.01,2013-09-11 14:48:00,
2013-09-11 08:49:00,60.4,33.4,30.18,South,187,0.0,2.2,36,0.00,,---,0.00,VWS V14.01,2013-09-11 14:49:00,
2013-09-11 08:51:00,60.6,32.8,30.18,South,187,2.2,2.2,35,0.00,,---,0.00,VWS V14.01,2013-09-11 14:51:00,
2013-09-11 08:54:00,61.0,33.2,30.18,South,187,0.0,2.7,35,0.00,,---,0.00,VWS V14.01,2013-09-11 14:54:00,
2013-09-11 08:56:00,61.0,33.2,30.18,South,187,2.7,3.1,35,0.00,,---,0.00,VWS V14.01,2013-09-11 14:56:00,
2013-09-11 08:57:00,61.2,33.3,30.18,South,187,2.2,2.7,35,0.00,,---,0.00,VWS V14.01,2013-09-11 14:57:00,
2013-09-11 08:59:00,61.3,33.5,30.18,South,180,2.2,2.7,35,0.00,,---,0.00,VWS V14.01,2013-09-11 14:59:00,
2013-09-11 09:00:00,61.3,33.5,30.18,South,180,2.7,2.7,35,0.00,,---,0.00,VWS V14.01,2013-09-11 15:00:00,
2013-09-11 09:01:00,61.3,33.5,30.18,South,182,0.0,2.7,35,0.00,,---,0.00,VWS V14.01,2013-09-11 15:01:00,
2013-09-11 09:03:00,61.3,33.5,30.18,South,182,0.0,0.0,35,0.00,,---,0.00,VWS V14.01,2013-09-11 15:03:00,
2013-09-11 09:04:00,61.5,33.6,30.18,South,179,0.0,0.0,35,0.00,,---,0.00,VWS V14.01,2013-09-11 15:04:00,
2013-09-11 09:05:00,61.5,33.6,30.18,South,179,2.2,2.2,35,0.00,,---,0.00,VWS V14.01,2013-09-11 15:05:00,
2013-09-11 09:07:00,61.7,33.8,30.18,South,179,2.2,2.2,35,0.00,,---,0.00,VWS V14.01,2013-09-11 15:07:00,
2013-09-11 09:08:00,61.9,33.2,30.18,South,180,2.2,2.7,34,0.00,,---,0.00,VWS V14.01,2013-09-11 15:08:00,
2013-09-11 09:09:00,62.2,33.5,30.18,South,180,0.0,2.2,34,0.00,,---,0.00,VWS V14.01,2013-09-11 15:09:00,
2013-09-11 09:10:00,62.4,33.7,30.18,South,185,2.2,2.7,34,0.00,,---,0.00,VWS V14.01,2013-09-11 15:10:00,
2013-09-11 09:12:00,63.1,34.3,30.18,ESE,119,2.7,3.1,34,0.00,,---,0.00,VWS V14.01,2013-09-11 15:12:00,
2013-09-11 09:13:00,63.5,34.7,30.18,ESE,119,0.0,2.7,34,0.00,,---,0.00,VWS V14.01,2013-09-11 15:13:00,
2013-09-11 09:14:00,64.0,35.1,30.18,ESE,119,0.0,2.2,34,0.00,,---,0.00,VWS V14.01,2013-09-11 15:14:00,
2013-09-11 09:15:00,64.4,34.7,30.18,ESE,119,0.0,2.2,33,0.00,,---,0.00,VWS V14.01,2013-09-11 15:15:00,
2013-09-11 09:18:00,65.5,34.9,30.18,ESE,119,0.0,0.0,32,0.00,,---,0.00,VWS V14.01,2013-09-11 15:18:00,
2013-09-11 09:19:00,66.0,34.5,30.18,ESE,119,0.0,0.0,31,0.00,,---,0.00,VWS V14.01,2013-09-11 15:19:00,
2013-09-11 09:20:00,66.0,34.5,30.18,ESE,119,0.0,0.0,31,0.00,,---,0.00,VWS V14.01,2013-09-11 15:20:00,
2013-09-11 09:23:00,67.1,32.9,30.18,North,10,3.6,3.6,28,0.00,,---,0.00,VWS V14.01,2013-09-11 15:23:00,
2013-09-11 09:24:00,67.1,32.9,30.18,North,357,4.0,4.9,28,0.00,,---,0.00,VWS V14.01,2013-09-11 15:24:00,
2013-09-11 09:25:00,67.1,32.0,30.18,North,0,2.7,4.9,27,0.00,,---,0.00,VWS V14.01,2013-09-11 15:25:00,
2013-09-11 09:28:00,66.6,31.6,30.18,NNE,19,3.1,3.1,27,0.00,,---,0.00,VWS V14.01,2013-09-11 15:28:00,
2013-09-11 09:29:00,66.4,31.4,30.21,NNE,15,3.6,3.6,27,0.00,,---,0.00,VWS V14.01,2013-09-11 15:29:00,
2013-09-11 09:30:00,66.4,31.4,30.21,NNE,16,3.1,3.6,27,0.00,,---,0.00,VWS V14.01,2013-09-11 15:30:00,
2013-09-11 09:34:00,65.8,31.9,30.21,North,357,4.0,4.0,28,0.00,,---,0.00,VWS V14.01,2013-09-11 15:34:00,
2013-09-11 09:35:00,65.8,31.9,30.21,NNE,20,4.0,4.0,28,0.00,,---,0.00,VWS V14.01,2013-09-11 15:35:00,
2013-09-11 09:39:00,65.5,31.5,30.21,North,1,2.7,3.6,28,0.00,,---,0.00,VWS V14.01,2013-09-11 15:39:00,
2013-09-11 09:40:00,65.5,31.5,30.21,North,357,2.7,3.6,28,0.00,,---,0.00,VWS V14.01,2013-09-11 15:40:00,
2013-09-11 09:44:00,65.3,32.3,30.21,NNE,29,3.1,3.6,29,0.00,,---,0.00,VWS V14.01,2013-09-11 15:44:00,
2013-09-11 09:45:00,65.1,32.1,30.21,North,0,4.0,4.9,29,0.00,,---,0.00,VWS V14.01,2013-09-11 15:45:00,
2013-09-11 09:46:00,65.1,32.1,30.21,NNW,344,2.2,5.4,29,0.00,,---,0.00,VWS V14.01,2013-09-11 15:46:00,
2013-09-11 09:49:00,65.3,31.4,30.21,NNE,24,2.7,3.6,28,0.00,,---,0.00,VWS V14.01,2013-09-11 15:49:00,
2013-09-11 09:50:00,65.3,31.4,30.21,NNE,24,3.1,3.6,28,0.00,,---,0.00,VWS V14.01,2013-09-11 15:50:00,
2013-09-11 09:51:00,65.3,31.4,30.21,NNE,12,4.0,5.4,28,0.00,,---,0.00,VWS V14.01,2013-09-11 15:51:00,
2013-09-11 09:54:00,65.1,32.1,30.21,North,357,3.1,4.9,29,0.00,,---,0.00,VWS V14.01,2013-09-11 15:54:00,
2013-09-11 09:55:00,65.3,32.3,30.21,North,357,2.7,3.6,29,0.00,,---,0.00,VWS V14.01,2013-09-11 15:55:00,
2013-09-11 09:56:00,65.5,32.4,30.21,NNW,339,2.2,3.1,29,0.00,,---,0.00,VWS V14.01,2013-09-11 15:56:00,
2013-09-11 09:57:00,65.5,32.4,30.21,NW,319,2.7,3.1,29,0.00,,---,0.00,VWS V14.01,2013-09-11 15:57:00,
2013-09-11 09:59:00,65.8,31.9,30.21,NNE,26,4.0,4.0,28,0.00,,---,0.00,VWS V14.01,2013-09-11 15:59:00,
2013-09-11 10:00:00,65.8,31.9,30.21,NNE,18,4.9,4.9,28,0.00,,---,0.00,VWS V14.01,2013-09-11 16:00:00,
2013-09-11 10:01:00,65.8,31.9,30.21,NNE,15,3.1,3.6,28,0.00,,---,0.00,VWS V14.01,2013-09-11 16:01:00,
2013-09-11 10:02:00,65.7,31.7,30.21,North,357,3.6,4.0,28,0.00,,---,0.00,VWS V14.01,2013-09-11 16:02:00,
2013-09-11 10:05:00,65.5,31.5,30.21,North,11,5.4,5.4,28,0.00,,---,0.00,VWS V14.01,2013-09-11 16:05:00,
2013-09-11 10:06:00,65.3,32.3,30.21,North,4,3.6,4.0,29,0.00,,---,0.00,VWS V14.01,2013-09-11 16:06:00,
2013-09-11 10:07:00,65.3,31.4,30.21,North,3,3.6,4.0,28,0.00,,---,0.00,VWS V14.01,2013-09-11 16:07:00,
2013-09-11 10:10:00,65.3,32.3,30.21,NW,321,2.2,3.1,29,0.00,,---,0.00,VWS V14.01,2013-09-11 16:10:00,
2013-09-11 10:12:00,65.7,31.7,30.21,North,357,4.0,4.0,28,0.00,,---,0.00,VWS V14.01,2013-09-11 16:12:00,
2013-09-11 10:15:00,66.0,32.0,30.21,North,4,4.9,4.9,28,0.00,,---,0.00,VWS V14.01,2013-09-11 16:15:00,
2013-09-11 10:17:00,66.0,32.0,30.21,North,0,3.1,3.6,28,0.00,,---,0.00,VWS V14.01,2013-09-11 16:17:00,
2013-09-11 10:18:00,66.0,32.0,30.21,North,0,3.6,3.6,28,0.00,,---,0.00,VWS V14.01,2013-09-11 16:18:00,
2013-09-11 10:20:00,66.2,32.2,30.21,NNW,329,2.2,2.7,28,0.00,,---,0.00,VWS V14.01,2013-09-11 16:20:00,
2013-09-11 10:21:00,66.2,32.2,30.21,NW,313,2.7,3.1,28,0.00,,---,0.00,VWS V14.01,2013-09-11 16:21:00,
2013-09-11 10:23:00,66.4,31.4,30.21,North,353,2.7,3.6,27,0.00,,---,0.00,VWS V14.01,2013-09-11 16:23:00,
2013-09-11 10:25:00,66.6,32.5,30.21,North,5,2.7,4.0,28,0.00,,---,0.00,VWS V14.01,2013-09-11 16:25:00,
2013-09-11 10:26:00,66.6,31.6,30.21,North,11,3.1,3.1,27,0.00,,---,0.00,VWS V14.01,2013-09-11 16:26:00,
2013-09-11 10:28:00,66.4,32.3,30.21,North,0,4.5,4.5,28,0.00,,---,0.00,VWS V14.01,2013-09-11 16:28:00,
2013-09-11 10:30:00,66.4,32.3,30.21,North,2,3.1,3.6,28,0.00,,---,0.00,VWS V14.01,2013-09-11 16:30:00,
2013-09-11 10:32:00,66.4,31.4,30.21,North,8,3.6,4.9,27,0.00,,---,0.00,VWS V14.01,2013-09-11 16:32:00,
2013-09-11 10:33:00,66.2,31.3,30.21,North,7,3.1,4.9,27,0.00,,---,0.00,VWS V14.01,2013-09-11 16:33:00,
2013-09-11 10:36:00,66.0,32.0,30.21,NNE,26,4.0,4.0,28,0.00,,---,0.00,VWS V14.01,2013-09-11 16:36:00,
2013-09-11 10:37:00,65.8,31.9,30.21,North,6,3.1,4.0,28,0.00,,---,0.00,VWS V14.01,2013-09-11 16:37:00,
2013-09-11 10:38:00,65.8,31.9,30.21,North,357,4.9,5.8,28,0.00,,---,0.00,VWS V14.01,2013-09-11 16:38:00,
2013-09-11 10:41:00,65.8,31.9,30.21,North,7,4.0,4.9,28,0.00,,---,0.00,VWS V14.01,2013-09-11 16:41:00,
2013-09-11 10:42:00,65.8,31.9,30.21,North,1,4.0,4.9,28,0.00,,---,0.00,VWS V14.01,2013-09-11 16:42:00,
2013-09-11 10:44:00,65.8,31.9,30.21,North,7,2.7,4.0,28,0.00,,---,0.00,VWS V14.01,2013-09-11 16:44:00,
2013-09-11 10:46:00,66.0,32.0,30.21,NNE,12,4.0,5.4,28,0.00,,---,0.00,VWS V14.01,2013-09-11 16:46:00,
2013-09-11 10:47:00,66.2,32.2,30.21,North,0,4.0,4.0,28,0.00,,---,0.00,VWS V14.01,2013-09-11 16:47:00,
2013-09-11 10:49:00,66.2,32.2,30.21,NNE,16,3.6,4.5,28,0.00,,---,0.00,VWS V14.01,2013-09-11 16:49:00,
2013-09-11 10:50:00,66.2,31.3,30.21,NNE,28,3.1,3.6,27,0.00,,---,0.00,VWS V14.01,2013-09-11 16:50:00,
2013-09-11 10:51:00,66.4,32.3,30.21,NNE,26,4.0,5.4,28,0.00,,---,0.00,VWS V14.01,2013-09-11 16:51:00,
2013-09-11 10:52:00,66.4,31.4,30.21,NNE,25,3.6,4.9,27,0.00,,---,0.00,VWS V14.01,2013-09-11 16:52:00,
2013-09-11 10:54:00,66.6,31.6,30.21,North,353,4.0,4.0,27,0.00,,---,0.00,VWS V14.01,2013-09-11 16:54:00,
2013-09-11 10:55:00,66.6,31.6,30.21,North,357,4.5,4.5,27,0.00,,---,0.00,VWS V14.01,2013-09-11 16:55:00,
2013-09-11 10:56:00,66.7,31.7,30.21,NNE,12,4.0,4.0,27,0.00,,---,0.00,VWS V14.01,2013-09-11 16:56:00,
2013-09-11 10:58:00,66.9,31.9,30.21,NNE,16,4.0,4.5,27,0.00,,---,0.00,VWS V14.01,2013-09-11 16:58:00,
2013-09-11 11:00:00,67.1,32.0,30.21,NNE,12,3.6,3.6,27,0.00,,---,0.00,VWS V14.01,2013-09-11 17:00:00,
2013-09-11 11:01:00,67.1,32.0,30.21,North,11,3.1,3.6,27,0.00,,---,0.00,VWS V14.01,2013-09-11 17:01:00,
2013-09-11 11:03:00,67.3,32.2,30.21,North,3,3.6,4.0,27,0.00,,---,0.00,VWS V14.01,2013-09-11 17:03:00,
2013-09-11 11:06:00,67.6,32.5,30.21,North,353,2.7,3.6,27,0.00,,---,0.00,VWS V14.01,2013-09-11 17:06:00,
2013-09-11 11:08:00,68.2,32.0,30.21,NNE,15,3.6,5.8,26,0.00,,---,0.00,VWS V14.01,2013-09-11 17:08:00,
2013-09-11 11:11:00,68.4,32.2,30.21,North,357,2.7,3.1,26,0.00,,---,0.00,VWS V14.01,2013-09-11 17:11:00,
2013-09-11 11:13:00,68.5,32.3,30.21,North,357,4.9,5.8,26,0.00,,---,0.00,VWS V14.01,2013-09-11 17:13:00,
2013-09-11 11:16:00,68.7,32.5,30.21,NNE,27,4.0,4.9,26,0.00,,---,0.00,VWS V14.01,2013-09-11 17:16:00,
2013-09-11 11:17:00,68.9,31.7,30.21,NNE,25,3.1,4.5,25,0.00,,---,0.00,VWS V14.01,2013-09-11 17:17:00,
2013-09-11 11:19:00,68.9,32.6,30.21,NNW,342,2.7,3.1,26,0.00,,---,0.00,VWS V14.01,2013-09-11 17:19:00,
2013-09-11 11:21:00,69.1,31.8,30.21,NNE,16,4.0,4.0,25,0.00,,---,0.00,VWS V14.01,2013-09-11 17:21:00,
2013-09-11 11:23:00,69.3,32.0,30.21,North,357,4.0,5.4,25,0.00,,---,0.00,VWS V14.01,2013-09-11 17:23:00,
2013-09-11 11:24:00,69.3,32.0,30.21,NW,314,2.7,3.6,25,0.00,,---,0.00,VWS V14.01,2013-09-11 17:24:00,
2013-09-11 11:26:00,69.6,32.3,30.21,NNE,21,5.4,5.4,25,0.00,,---,0.00,VWS V14.01,2013-09-11 17:26:00,
2013-09-11 11:27:00,69.6,32.3,30.21,North,357,3.6,5.4,25,0.00,,---,0.00,VWS V14.01,2013-09-11 17:27:00,
2013-09-11 11:28:00,69.8,32.4,30.21,North,357,4.9,5.8,25,0.00,,---,0.00,VWS V14.01,2013-09-11 17:28:00,
2013-09-11 11:30:00,69.8,31.4,30.21,North,5,3.1,3.1,24,0.00,,---,0.00,VWS V14.01,2013-09-11 17:30:00,
2013-09-11 11:31:00,69.8,31.4,30.21,North,6,3.1,4.0,24,0.00,,---,0.00,VWS V14.01,2013-09-11 17:31:00,
2013-09-11 11:32:00,69.8,32.4,30.21,NNE,22,4.0,4.0,25,0.00,,---,0.00,VWS V14.01,2013-09-11 17:32:00,
2013-09-11 11:33:00,70.0,31.6,30.21,NNE,24,3.1,3.6,24,0.00,,---,0.00,VWS V14.01,2013-09-11 17:33:00,
2013-09-11 11:35:00,70.0,31.6,30.21,NNE,17,3.6,4.9,24,0.00,,---,0.00,VWS V14.01,2013-09-11 17:35:00,
2013-09-11 11:36:00,70.2,31.7,30.21,NNE,17,5.8,5.8,24,0.00,,---,0.00,VWS V14.01,2013-09-11 17:36:00,
2013-09-11 11:37:00,70.2,31.7,30.21,NNE,14,3.6,5.8,24,0.00,,---,0.00,VWS V14.01,2013-09-11 17:37:00,
2013-09-11 11:38:00,70.0,31.6,30.21,North,357,2.2,4.9,24,0.00,,---,0.00,VWS V14.01,2013-09-11 17:38:00,
2013-09-11 11:40:00,70.2,31.7,30.21,North,4,4.0,4.0,24,0.00,,---,0.00,VWS V14.01,2013-09-11 17:40:00,
2013-09-11 11:41:00,70.2,31.7,30.21,NNE,15,5.4,5.8,24,0.00,,---,0.00,VWS V14.01,2013-09-11 17:41:00,
2013-09-11 11:42:00,70.2,30.7,30.21,North,5,3.1,5.4,23,0.00,,---,0.00,VWS V14.01,2013-09-11 17:42:00,
2013-09-11 11:44:00,70.3,31.9,30.21,NNW,337,2.7,4.0,24,0.00,,---,0.00,VWS V14.01,2013-09-11 17:44:00,
2013-09-11 11:45:00,70.5,32.0,30.21,North,11,4.0,4.0,24,0.00,,---,0.00,VWS V14.01,2013-09-11 17:45:00,
2013-09-11 11:46:00,70.7,32.2,30.21,North,11,4.9,4.9,24,0.00,,---,0.00,VWS V14.01,2013-09-11 17:46:00,
2013-09-11 11:47:00,70.7,31.1,30.21,NNE,25,4.0,5.8,23,0.00,,---,0.00,VWS V14.01,2013-09-11 17:47:00,
2013-09-11 11:50:00,70.7,31.1,30.21,NNE,28,3.6,4.0,23,0.00,,---,0.00,VWS V14.01,2013-09-11 17:50:00,
2013-09-11 11:51:00,70.7,32.2,30.21,NE,35,5.4,5.4,24,0.00,,---,0.00,VWS V14.01,2013-09-11 17:51:00,
2013-09-11 11:52:00,70.5,32.0,30.21,North,357,3.6,5.4,24,0.00,,---,0.00,VWS V14.01,2013-09-11 17:52:00,
2013-09-11 11:55:00,70.9,32.3,30.21,NNW,344,3.1,4.9,24,0.00,,---,0.00,VWS V14.01,2013-09-11 17:55:00,
2013-09-11 11:56:00,70.9,32.3,30.21,North,353,3.6,3.6,24,0.00,,---,0.00,VWS V14.01,2013-09-11 17:56:00,
2013-09-11 11:57:00,71.4,32.8,30.21,North,11,4.9,4.9,24,0.00,,---,0.00,VWS V14.01,2013-09-11 17:57:00,
2013-09-11 12:01:00,71.8,32.0,30.21,North,9,4.0,4.0,23,0.00,,---,0.00,VWS V14.01,2013-09-11 18:01:00,
2013-09-11 12:03:00,71.8,32.0,30.21,NNE,21,3.1,4.0,23,0.00,,---,0.00,VWS V14.01,2013-09-11 18:03:00,
2013-09-11 12:06:00,71.8,30.9,30.21,East,81,2.2,2.7,22,0.00,,---,0.00,VWS V14.01,2013-09-11 18:06:00,
2013-09-11 12:07:00,71.8,32.0,30.21,NNE,28,3.1,3.1,23,0.00,,---,0.00,VWS V14.01,2013-09-11 18:07:00,
2013-09-11 12:08:00,71.8,32.0,30.21,NNE,17,5.4,5.4,23,0.00,,---,0.00,VWS V14.01,2013-09-11 18:08:00,
2013-09-11 12:11:00,72.0,32.2,30.21,NNE,25,2.7,4.0,23,0.00,,---,0.00,VWS V14.01,2013-09-11 18:11:00,
2013-09-11 12:12:00,72.0,32.2,30.21,NNE,30,3.1,4.0,23,0.00,,---,0.00,VWS V14.01,2013-09-11 18:12:00,
2013-09-11 12:13:00,72.0,32.2,30.21,NNE,29,3.1,4.0,23,0.00,,---,0.00,VWS V14.01,2013-09-11 18:13:00,
2013-09-11 12:16:00,72.3,32.5,30.21,NNE,19,6.3,6.3,23,0.00,,---,0.00,VWS V14.01,2013-09-11 18:16:00,
2013-09-11 12:17:00,72.5,31.5,30.21,NNE,15,5.4,6.3,22,0.00,,---,0.00,VWS V14.01,2013-09-11 18:17:00,
2013-09-11 12:18:00,72.5,31.5,30.21,North,353,5.8,6.3,22,0.00,,---,0.00,VWS V14.01,2013-09-11 18:18:00,
2013-09-11 12:21:00,72.3,31.4,30.21,NNE,23,4.0,5.8,22,0.00,,---,0.00,VWS V14.01,2013-09-11 18:21:00,
2013-09-11 12:22:00,72.3,32.5,30.21,NNE,12,4.0,4.0,23,0.00,,---,0.00,VWS V14.01,2013-09-11 18:22:00,
2013-09-11 12:23:00,72.5,32.6,30.21,NNE,25,4.9,4.9,23,0.00,,---,0.00,VWS V14.01,2013-09-11 18:23:00,
2013-09-11 12:26:00,72.5,32.6,30.21,North,9,5.4,6.3,23,0.00,,---,0.00,VWS V14.01,2013-09-11 18:26:00,
2013-09-11 12:27:00,72.7,31.7,30.21,North,2,5.4,5.8,22,0.00,,---,0.00,VWS V14.01,2013-09-11 18:27:00,
2013-09-11 12:28:00,72.7,31.7,30.21,North,11,4.9,5.4,22,0.00,,---,0.00,VWS V14.01,2013-09-11 18:28:00,
2013-09-11 12:31:00,72.7,31.7,30.21,North,6,2.7,5.4,22,0.00,,---,0.00,VWS V14.01,2013-09-11 18:31:00,
2013-09-11 12:33:00,72.7,31.7,30.21,North,0,5.8,5.8,22,0.00,,---,0.00,VWS V14.01,2013-09-11 18:33:00,
2013-09-11 12:34:00,72.7,31.7,30.21,NNE,19,4.0,5.8,22,0.00,,---,0.00,VWS V14.01,2013-09-11 18:34:00,
2013-09-11 12:36:00,72.7,31.7,30.21,NNE,28,4.0,6.7,22,0.00,,---,0.00,VWS V14.01,2013-09-11 18:36:00,
2013-09-11 12:38:00,72.9,31.8,30.21,NE,47,5.4,5.4,22,0.00,,---,0.00,VWS V14.01,2013-09-11 18:38:00,
2013-09-11 12:39:00,73.0,32.0,30.21,North,357,2.7,4.0,22,0.00,,---,0.00,VWS V14.01,2013-09-11 18:39:00,
2013-09-11 12:42:00,73.4,31.1,30.21,NNE,29,6.3,7.6,21,0.00,,---,0.00,VWS V14.01,2013-09-11 18:42:00,
2013-09-11 12:43:00,73.4,31.1,30.18,NNE,12,2.7,5.4,21,0.00,,---,0.00,VWS V14.01,2013-09-11 18:43:00,
2013-09-11 12:44:00,73.4,31.1,30.18,North,353,4.0,4.0,21,0.00,,---,0.00,VWS V14.01,2013-09-11 18:44:00,
2013-09-11 12:47:00,73.4,31.1,30.18,North,2,3.1,3.6,21,0.00,,---,0.00,VWS V14.01,2013-09-11 18:47:00,
2013-09-11 12:48:00,73.4,31.1,30.18,North,1,4.0,5.4,21,0.00,,---,0.00,VWS V14.01,2013-09-11 18:48:00,
2013-09-11 12:49:00,73.4,31.1,30.18,NNE,24,3.6,6.3,21,0.00,,---,0.00,VWS V14.01,2013-09-11 18:49:00,
2013-09-11 12:52:00,73.6,31.3,30.18,NE,37,3.1,3.1,21,0.00,,---,0.00,VWS V14.01,2013-09-11 18:52:00,
2013-09-11 12:54:00,73.8,31.4,30.18,NNE,24,8.1,8.1,21,0.00,,---,0.00,VWS V14.01,2013-09-11 18:54:00,
2013-09-11 12:55:00,73.8,31.4,30.18,North,0,5.8,5.8,21,0.00,,---,0.00,VWS V14.01,2013-09-11 18:55:00,
2013-09-11 12:57:00,73.9,31.6,30.18,NNE,21,4.9,7.6,21,0.00,,---,0.00,VWS V14.01,2013-09-11 18:57:00,
2013-09-11 12:59:00,73.8,31.4,30.18,NNE,21,2.7,4.9,21,0.00,,---,0.00,VWS V14.01,2013-09-11 18:59:00,
2013-09-11 13:00:00,73.8,31.4,30.18,ENE,77,2.2,5.8,21,0.00,,---,0.00,VWS V14.01,2013-09-11 19:00:00,
2013-09-11 13:02:00,73.9,31.6,30.18,North,2,2.7,5.4,21,0.00,,---,0.00,VWS V14.01,2013-09-11 19:02:00,
2013-09-11 13:04:00,73.9,31.6,30.18,North,357,4.0,6.3,21,0.00,,---,0.00,VWS V14.01,2013-09-11 19:04:00,
2013-09-11 13:05:00,73.9,31.6,30.18,NNE,14,6.3,6.3,21,0.00,,---,0.00,VWS V14.01,2013-09-11 19:05:00,
2013-09-11 13:07:00,73.9,31.6,30.18,North,3,4.9,5.8,21,0.00,,---,0.00,VWS V14.01,2013-09-11 19:07:00,
2013-09-11 13:09:00,74.1,31.7,30.18,East,82,0.0,4.9,21,0.00,,---,0.00,VWS V14.01,2013-09-11 19:09:00,
2013-09-11 13:10:00,74.3,31.9,30.18,NNE,13,0.0,3.6,21,0.00,,---,0.00,VWS V14.01,2013-09-11 19:10:00,
2013-09-11 13:11:00,74.3,31.9,30.18,East,84,2.2,3.1,21,0.00,,---,0.00,VWS V14.01,2013-09-11 19:11:00,
2013-09-11 13:12:00,74.3,31.9,30.18,NNW,346,2.7,4.9,21,0.00,,---,0.00,VWS V14.01,2013-09-11 19:12:00,
2013-09-11 13:14:00,74.3,31.9,30.18,North,349,5.4,5.8,21,0.00,,---,0.00,VWS V14.01,2013-09-11 19:14:00,
2013-09-11 13:16:00,74.5,32.0,30.18,North,4,3.1,4.9,21,0.00,,---,0.00,VWS V14.01,2013-09-11 19:16:00,
2013-09-11 13:17:00,74.5,28.2,30.18,North,8,3.1,5.4,18,0.00,,---,0.00,VWS V14.01,2013-09-11 19:17:00,
2013-09-11 13:18:00,74.5,28.2,30.18,North,6,4.0,5.4,18,0.00,,---,0.00,VWS V14.01,2013-09-11 19:18:00,
2013-09-11 13:19:00,74.7,32.2,30.18,North,0,2.7,3.6,21,0.00,,---,0.00,VWS V14.01,2013-09-11 19:19:00,
2013-09-11 13:21:00,74.7,28.4,30.18,NNE,13,4.0,5.4,18,0.00,,---,0.00,VWS V14.01,2013-09-11 19:21:00,
2013-09-11 13:22:00,74.7,28.4,30.18,NNE,20,3.1,5.4,18,0.00,,---,0.00,VWS V14.01,2013-09-11 19:22:00,
2013-09-11 13:23:00,74.7,28.4,30.18,North,4,4.9,5.4,18,0.00,,---,0.00,VWS V14.01,2013-09-11 19:23:00,
2013-09-11 13:24:00,74.7,28.4,30.18,NNE,25,4.0,5.8,18,0.00,,---,0.00,VWS V14.01,2013-09-11 19:24:00,
2013-09-11 13:26:00,74.5,28.2,30.18,NE,38,4.0,5.4,18,0.00,,---,0.00,VWS V14.01,2013-09-11 19:26:00,
2013-09-11 13:27:00,74.5,28.2,30.18,NE,45,4.0,4.0,18,0.00,,---,0.00,VWS V14.01,2013-09-11 19:27:00,
2013-09-11 13:28:00,74.7,28.4,30.18,North,8,8.1,8.1,18,0.00,,---,0.00,VWS V14.01,2013-09-11 19:28:00,
2013-09-11 13:29:00,74.7,28.4,30.21,NNE,27,5.4,7.6,18,0.00,,---,0.00,VWS V14.01,2013-09-11 19:29:00,
2013-09-11 13:32:00,74.8,28.5,30.21,North,0,5.4,6.3,18,0.00,,---,0.00,VWS V14.01,2013-09-11 19:32:00,
2013-09-11 13:33:00,74.7,25.5,30.21,North,357,4.9,6.3,16,0.00,,---,0.00,VWS V14.01,2013-09-11 19:33:00,
2013-09-11 13:34:00,74.7,25.5,30.21,NNE,17,5.8,6.7,16,0.00,,---,0.00,VWS V14.01,2013-09-11 19:34:00,
2013-09-11 13:37:00,74.5,25.4,30.21,NNE,12,2.7,6.3,16,0.00,,---,0.00,VWS V14.01,2013-09-11 19:37:00,
2013-09-11 13:38:00,74.5,25.4,30.21,SE,124,2.7,6.3,16,0.00,,---,0.00,VWS V14.01,2013-09-11 19:38:00,
2013-09-11 13:39:00,74.7,25.5,30.21,ENE,59,3.6,3.6,16,0.00,,---,0.00,VWS V14.01,2013-09-11 19:39:00,
2013-09-11 13:42:00,75.2,24.4,30.21,North,0,6.3,6.3,15,0.00,,---,0.00,VWS V14.01,2013-09-11 19:42:00,
2013-09-11 13:43:00,75.2,24.4,30.21,NNE,13,7.6,7.6,15,0.00,,---,0.00,VWS V14.01,2013-09-11 19:43:00,
2013-09-11 13:44:00,75.4,24.6,30.18,North,357,5.8,6.3,15,0.00,,---,0.00,VWS V14.01,2013-09-11 19:44:00,
2013-09-11 13:47:00,75.2,24.4,30.18,NNE,13,5.8,5.8,15,0.00,,---,0.00,VWS V14.01,2013-09-11 19:47:00,
2013-09-11 13:48:00,75.2,24.4,30.18,North,8,4.0,5.8,15,0.00,,---,0.00,VWS V14.01,2013-09-11 19:48:00,
2013-09-11 13:49:00,75.2,24.4,30.18,ENE,78,2.2,2.7,15,0.00,,---,0.00,VWS V14.01,2013-09-11 19:49:00,
2013-09-11 13:50:00,75.2,24.4,30.18,ENE,78,2.2,2.7,15,0.00,,---,0.00,VWS V14.01,2013-09-11 19:50:00,
2013-09-11 13:52:00,75.7,21.5,30.18,ESE,106,3.1,4.0,13,0.00,,---,0.00,VWS V14.01,2013-09-11 19:52:00,
2013-09-11 13:53:00,75.9,21.6,30.18,ESE,119,3.1,3.1,13,0.00,,---,0.00,VWS V14.01,2013-09-11 19:53:00,
2013-09-11 13:54:00,76.1,21.7,30.18,ESE,107,4.0,4.0,13,0.00,,---,0.00,VWS V14.01,2013-09-11 19:54:00,
2013-09-11 13:55:00,76.3,21.9,30.18,SE,133,3.1,3.6,13,0.00,,---,0.00,VWS V14.01,2013-09-11 19:55:00,
2013-09-11 13:58:00,76.5,22.0,30.18,NNE,17,4.0,5.8,13,0.00,,---,0.00,VWS V14.01,2013-09-11 19:58:00,
2013-09-11 13:59:00,76.5,22.0,30.21,ENE,60,2.2,4.0,13,0.00,,---,0.00,VWS V14.01,2013-09-11 19:59:00,
2013-09-11 14:00:00,76.5,22.0,30.21,East,88,2.7,4.0,13,0.00,,---,0.00,VWS V14.01,2013-09-11 20:00:00,
2013-09-11 14:03:00,76.6,16.0,30.21,East,90,0.0,2.7,10,0.00,,---,0.00,VWS V14.01,2013-09-11 20:03:00,
2013-09-11 14:04:00,76.8,16.2,30.21,East,98,5.8,5.8,10,0.00,,---,0.00,VWS V14.01,2013-09-11 20:04:00,
2013-09-11 14:05:00,76.8,16.2,30.21,NE,50,2.7,5.8,10,0.00,,---,0.00,VWS V14.01,2013-09-11 20:05:00,
2013-09-11 14:06:00,76.8,22.3,30.21,NE,42,3.1,4.9,13,0.00,,---,0.00,VWS V14.01,2013-09-11 20:06:00,
2013-09-11 14:08:00,77.0,16.3,30.21,NNE,26,3.6,4.9,10,0.00,,---,0.00,VWS V14.01,2013-09-11 20:08:00,
2013-09-11 14:09:00,77.0,22.4,30.21,NNE,19,2.7,5.4,13,0.00,,---,0.00,VWS V14.01,2013-09-11 20:09:00,
2013-09-11 14:10:00,77.0,22.4,30.21,North,357,3.6,5.4,13,0.00,,---,0.00,VWS V14.01,2013-09-11 20:10:00,
2013-09-11 14:11:00,77.0,16.3,30.21,NNE,24,4.0,5.8,10,0.00,,---,0.00,VWS V14.01,2013-09-11 20:11:00,
2013-09-11 14:13:00,77.0,16.3,30.21,NE,51,2.2,3.1,10,0.00,,---,0.00,VWS V14.01,2013-09-11 20:13:00,
2013-09-11 14:15:00,77.0,16.3,30.18,NE,36,2.7,3.6,10,0.00,,---,0.00,VWS V14.01,2013-09-11 20:15:00,
2013-09-11 14:16:00,77.2,16.5,30.18,North,10,5.4,8.3,10,0.00,,---,0.00,VWS V14.01,2013-09-11 20:16:00,
2013-09-11 14:18:00,77.2,16.5,30.18,NE,50,0.0,4.0,10,0.00,,---,0.00,VWS V14.01,2013-09-11 20:18:00,
2013-09-11 14:20:00,77.5,16.7,30.18,NNE,27,5.8,6.3,10,0.00,,---,0.00,VWS V14.01,2013-09-11 20:20:00,
2013-09-11 14:21:00,77.5,16.7,30.18,NNE,25,3.6,5.4,10,0.00,,---,0.00,VWS V14.01,2013-09-11 20:21:00,
2013-09-11 14:23:00,77.5,16.7,30.18,ESE,120,3.1,3.1,10,0.00,,---,0.00,VWS V14.01,2013-09-11 20:23:00,
2013-09-11 14:25:00,77.4,16.6,30.18,SE,139,5.4,5.4,10,0.00,,---,0.00,VWS V14.01,2013-09-11 20:25:00,
2013-09-11 14:26:00,77.4,16.6,30.18,South,176,2.7,3.6,10,0.00,,---,0.00,VWS V14.01,2013-09-11 20:26:00,
2013-09-11 14:27:00,77.2,16.5,30.18,SSE,156,2.7,3.1,10,0.00,,---,0.00,VWS V14.01,2013-09-11 20:27:00,
2013-09-11 14:28:00,77.2,16.5,30.18,SE,143,4.0,4.0,10,0.00,,---,0.00,VWS V14.01,2013-09-11 20:28:00,
2013-09-11 14:30:00,77.2,16.5,30.18,NNE,22,3.1,5.4,10,0.00,,---,0.00,VWS V14.01,2013-09-11 20:30:00,
2013-09-11 14:31:00,77.2,16.5,30.18,North,0,5.4,5.4,10,0.00,,---,0.00,VWS V14.01,2013-09-11 20:31:00,
2013-09-11 14:32:00,77.2,16.5,30.18,North,5,4.0,5.8,10,0.00,,---,0.00,VWS V14.01,2013-09-11 20:32:00,
2013-09-11 14:33:00,77.2,16.5,30.18,North,357,6.3,6.7,10,0.00,,---,0.00,VWS V14.01,2013-09-11 20:33:00,
2013-09-11 14:35:00,76.8,16.2,30.18,North,11,5.4,5.4,10,0.00,,---,0.00,VWS V14.01,2013-09-11 20:35:00,
2013-09-11 14:36:00,76.8,16.2,30.18,ENE,75,2.2,5.8,10,0.00,,---,0.00,VWS V14.01,2013-09-11 20:36:00,
2013-09-11 14:37:00,76.8,16.2,30.18,North,6,4.0,4.0,10,0.00,,---,0.00,VWS V14.01,2013-09-11 20:37:00,
2013-09-11 14:38:00,77.0,16.3,30.18,NE,46,4.0,4.0,10,0.00,,---,0.00,VWS V14.01,2013-09-11 20:38:00,
2013-09-11 14:40:00,77.2,16.5,30.18,North,4,5.8,5.8,10,0.00,,---,0.00,VWS V14.01,2013-09-11 20:40:00,
2013-09-11 14:41:00,77.2,16.5,30.18,West,259,3.1,4.0,10,0.00,,---,0.00,VWS V14.01,2013-09-11 20:41:00,
2013-09-11 14:43:00,77.2,16.5,30.18,ENE,59,5.4,5.4,10,0.00,,---,0.00,VWS V14.01,2013-09-11 20:43:00,
2013-09-11 14:45:00,77.0,16.3,30.18,North,357,4.9,4.9,10,0.00,,---,0.00,VWS V14.01,2013-09-11 20:45:00,
2013-09-11 14:47:00,77.0,16.3,30.18,NNE,12,7.6,7.6,10,0.00,,---,0.00,VWS V14.01,2013-09-11 20:47:00,
2013-09-11 14:48:00,77.0,16.3,30.18,North,5,3.6,8.1,10,0.00,,---,0.00,VWS V14.01,2013-09-11 20:48:00,
2013-09-11 14:49:00,77.0,16.3,30.18,North,357,2.7,2.7,10,0.00,,---,0.00,VWS V14.01,2013-09-11 20:49:00,
2013-09-11 14:50:00,77.0,16.3,30.18,North,1,4.0,4.0,10,0.00,,---,0.00,VWS V14.01,2013-09-11 20:50:00,
2013-09-11 14:52:00,76.8,16.2,30.18,NE,51,4.0,4.0,10,0.00,,---,0.00,VWS V14.01,2013-09-11 20:52:00,
2013-09-11 14:53:00,76.8,16.2,30.18,NE,51,0.0,4.0,10,0.00,,---,0.00,VWS V14.01,2013-09-11 20:53:00,
2013-09-11 14:54:00,77.0,16.3,30.18,NE,35,4.0,4.0,10,0.00,,---,0.00,VWS V14.01,2013-09-11 20:54:00,
2013-09-11 14:56:00,77.4,16.6,30.18,NE,39,5.4,5.4,10,0.00,,---,0.00,VWS V14.01,2013-09-11 20:56:00,
2013-09-11 14:57:00,77.7,16.9,30.18,NNE,27,3.6,5.4,10,0.00,,---,0.00,VWS V14.01,2013-09-11 20:57:00,
2013-09-11 14:58:00,77.7,16.9,30.18,NNE,30,2.7,3.6,10,0.00,,---,0.00,VWS V14.01,2013-09-11 20:58:00,
2013-09-11 14:59:00,77.9,17.0,30.18,NNE,30,4.0,5.4,10,0.00,,---,0.00,VWS V14.01,2013-09-11 20:59:00,
2013-09-11 15:01:00,77.9,17.0,30.18,East,86,0.0,3.1,10,0.00,,---,0.00,VWS V14.01,2013-09-11 21:01:00,
2013-09-11 15:03:00,77.9,17.0,30.18,NNE,20,4.0,4.0,10,0.00,,---,0.00,VWS V14.01,2013-09-11 21:03:00,
2013-09-11 15:04:00,78.1,17.1,30.18,ENE,68,3.1,4.0,10,0.00,,---,0.00,VWS V14.01,2013-09-11 21:04:00,
2013-09-11 15:06:00,78.1,17.1,30.18,NE,38,3.1,4.0,10,0.00,,---,0.00,VWS V14.01,2013-09-11 21:06:00,
2013-09-11 15:08:00,78.1,17.1,30.18,NNE,12,4.9,6.3,10,0.00,,---,0.00,VWS V14.01,2013-09-11 21:08:00,
2013-09-11 15:09:00,77.9,17.0,30.18,ESE,113,2.7,4.9,10,0.00,,---,0.00,VWS V14.01,2013-09-11 21:09:00,
2013-09-11 15:10:00,77.9,17.0,30.18,East,90,3.1,4.9,10,0.00,,---,0.00,VWS V14.01,2013-09-11 21:10:00,
2013-09-11 15:11:00,78.1,17.1,30.18,ENE,58,2.7,3.6,10,0.00,,---,0.00,VWS V14.01,2013-09-11 21:11:00,
2013-09-11 15:13:00,78.1,17.1,30.18,North,5,3.1,3.6,10,0.00,,---,0.00,VWS V14.01,2013-09-11 21:13:00,
2013-09-11 15:14:00,78.1,17.1,30.18,NE,38,0.0,3.6,10,0.00,,---,0.00,VWS V14.01,2013-09-11 21:14:00,
2013-09-11 15:15:00,78.3,17.3,30.18,NE,37,2.7,2.7,10,0.00,,---,0.00,VWS V14.01,2013-09-11 21:15:00,
2013-09-11 15:16:00,78.4,17.4,30.18,ESE,108,0.0,4.0,10,0.00,,---,0.00,VWS V14.01,2013-09-11 21:16:00,
2013-09-11 15:18:00,78.4,17.4,30.18,North,5,4.0,4.0,10,0.00,,---,0.00,VWS V14.01,2013-09-11 21:18:00,
2013-09-11 15:19:00,78.4,17.4,30.18,NNE,15,4.9,4.9,10,0.00,,---,0.00,VWS V14.01,2013-09-11 21:19:00,
2013-09-11 15:20:00,78.4,17.4,30.18,North,357,3.6,4.9,10,0.00,,---,0.00,VWS V14.01,2013-09-11 21:20:00,
2013-09-11 15:21:00,78.4,17.4,30.18,NNE,31,6.3,6.3,10,0.00,,---,0.00,VWS V14.01,2013-09-11 21:21:00,
2013-09-11 15:23:00,78.1,17.1,30.18,North,4,8.1,8.1,10,0.00,,---,0.00,VWS V14.01,2013-09-11 21:23:00,
2013-09-11 15:24:00,78.1,17.1,30.18,NNE,14,6.3,8.3,10,0.00,,---,0.00,VWS V14.01,2013-09-11 21:24:00,
2013-09-11 15:25:00,77.9,17.0,30.18,NNW,329,5.4,6.3,10,0.00,,---,0.00,VWS V14.01,2013-09-11 21:25:00,
2013-09-11 15:26:00,77.9,17.0,30.18,NNW,345,5.4,6.3,10,0.00,,---,0.00,VWS V14.01,2013-09-11 21:26:00,
2013-09-11 15:28:00,77.7,16.9,30.18,North,350,3.1,3.1,10,0.00,,---,0.00,VWS V14.01,2013-09-11 21:28:00,
2013-09-11 15:30:00,77.7,16.9,30.18,North,4,5.4,5.8,10,0.00,,---,0.00,VWS V14.01,2013-09-11 21:30:00,
2013-09-11 15:31:00,77.7,16.9,30.18,NNE,24,3.1,6.3,10,0.00,,---,0.00,VWS V14.01,2013-09-11 21:31:00,
2013-09-11 15:33:00,77.7,16.9,30.18,North,353,2.7,4.0,10,0.00,,---,0.00,VWS V14.01,2013-09-11 21:33:00,
2013-09-11 15:35:00,77.7,16.9,30.18,North,7,4.0,6.3,10,0.00,,---,0.00,VWS V14.01,2013-09-11 21:35:00,
2013-09-11 15:36:00,77.7,16.9,30.18,NE,54,5.4,6.3,10,0.00,,---,0.00,VWS V14.01,2013-09-11 21:36:00,
2013-09-11 15:37:00,77.7,16.9,30.18,NNE,30,4.9,6.3,10,0.00,,---,0.00,VWS V14.01,2013-09-11 21:37:00,
2013-09-11 15:38:00,77.9,17.0,30.18,North,7,5.4,5.4,10,0.00,,---,0.00,VWS V14.01,2013-09-11 21:38:00,
2013-09-11 15:40:00,77.7,16.9,30.18,ENE,67,4.0,5.4,10,0.00,,---,0.00,VWS V14.01,2013-09-11 21:40:00,
2013-09-11 15:41:00,77.7,16.9,30.18,North,0,3.1,4.0,10,0.00,,---,0.00,VWS V14.01,2013-09-11 21:41:00,
2013-09-11 15:43:00,77.4,16.6,30.18,NNE,12,8.1,8.7,10,0.00,,---,0.00,VWS V14.01,2013-09-11 21:43:00,
2013-09-11 15:45:00,77.4,16.6,30.18,NNE,13,5.4,5.8,10,0.00,,---,0.00,VWS V14.01,2013-09-11 21:45:00,
2013-09-11 15:46:00,77.2,22.6,30.18,NNE,19,4.0,5.8,13,0.00,,---,0.00,VWS V14.01,2013-09-11 21:46:00,
2013-09-11 15:47:00,77.2,22.6,30.18,NE,38,5.8,5.8,13,0.00,,---,0.00,VWS V14.01,2013-09-11 21:47:00,
2013-09-11 15:48:00,77.0,22.4,30.18,NNE,14,5.4,6.7,13,0.00,,---,0.00,VWS V14.01,2013-09-11 21:48:00,
2013-09-11 15:51:00,77.0,22.4,30.18,North,8,3.6,3.6,13,0.00,,---,0.00,VWS V14.01,2013-09-11 21:51:00,
2013-09-11 15:52:00,77.2,22.6,30.18,North,357,8.3,8.3,13,0.00,,---,0.00,VWS V14.01,2013-09-11 21:52:00,
2013-09-11 15:53:00,77.2,22.6,30.18,North,353,6.3,6.3,13,0.00,,---,0.00,VWS V14.01,2013-09-11 21:53:00,
2013-09-11 15:56:00,77.0,22.4,30.18,North,9,6.3,7.6,13,0.00,,---,0.00,VWS V14.01,2013-09-11 21:56:00,
2013-09-11 15:57:00,77.0,22.4,30.18,North,9,6.3,7.6,13,0.00,,---,0.00,VWS V14.01,2013-09-11 21:57:00,
2013-09-11 15:58:00,77.0,22.4,30.18,North,349,5.4,6.3,13,0.00,,---,0.00,VWS V14.01,2013-09-11 21:58:00,
2013-09-11 16:02:00,77.0,22.4,30.18,North,357,6.3,6.3,13,0.00,,---,0.00,VWS V14.01,2013-09-11 22:02:00,
2013-09-11 16:03:00,77.0,22.4,30.18,North,0,5.4,5.4,13,0.00,,---,0.00,VWS V14.01,2013-09-11 22:03:00,
2013-09-11 16:07:00,77.0,22.4,30.18,North,353,3.6,5.4,13,0.00,,---,0.00,VWS V14.01,2013-09-11 22:07:00,
2013-09-11 16:08:00,77.0,22.4,30.18,North,9,3.6,5.4,13,0.00,,---,0.00,VWS V14.01,2013-09-11 22:08:00,
2013-09-11 16:09:00,77.0,22.4,30.18,North,10,5.4,6.3,13,0.00,,---,0.00,VWS V14.01,2013-09-11 22:09:00,
2013-09-11 16:12:00,77.0,22.4,30.18,North,353,6.3,6.3,13,0.00,,---,0.00,VWS V14.01,2013-09-11 22:12:00,
2013-09-11 16:13:00,77.0,22.4,30.18,NNW,345,5.8,5.8,13,0.00,,---,0.00,VWS V14.01,2013-09-11 22:13:00,
2013-09-11 16:14:00,77.0,22.4,30.18,NNW,345,5.8,5.8,13,0.00,,---,0.00,VWS V14.01,2013-09-11 22:14:00,
2013-09-11 16:17:00,77.4,22.7,30.18,North,357,5.8,6.7,13,0.00,,---,0.00,VWS V14.01,2013-09-11 22:17:00,
2013-09-11 16:19:00,77.4,22.7,30.18,NW,318,4.0,6.7,13,0.00,,---,0.00,VWS V14.01,2013-09-11 22:19:00,
2013-09-11 16:22:00,77.2,22.6,30.18,NE,34,7.6,7.6,13,0.00,,---,0.00,VWS V14.01,2013-09-11 22:22:00,
2013-09-11 16:24:00,77.2,22.6,30.18,NNW,327,5.4,5.8,13,0.00,,---,0.00,VWS V14.01,2013-09-11 22:24:00,
2013-09-11 16:25:00,77.2,22.6,30.18,NNE,14,5.4,5.4,13,0.00,,---,0.00,VWS V14.01,2013-09-11 22:25:00,
2013-09-11 16:27:00,77.2,22.6,30.18,North,0,4.0,6.3,13,0.00,,---,0.00,VWS V14.01,2013-09-11 22:27:00,
2013-09-11 16:29:00,77.2,22.6,30.18,NNE,16,5.8,6.3,13,0.00,,---,0.00,VWS V14.01,2013-09-11 22:29:00,
2013-09-11 16:30:00,77.2,22.6,30.18,North,7,5.4,6.3,13,0.00,,---,0.00,VWS V14.01,2013-09-11 22:30:00,
2013-09-11 16:32:00,77.2,22.6,30.18,North,3,3.6,6.7,13,0.00,,---,0.00,VWS V14.01,2013-09-11 22:32:00,
2013-09-11 16:34:00,77.2,22.6,30.18,North,0,5.8,5.8,13,0.00,,---,0.00,VWS V14.01,2013-09-11 22:34:00,
2013-09-11 16:35:00,77.2,22.6,30.18,North,357,5.4,5.4,13,0.00,,---,0.00,VWS V14.01,2013-09-11 22:35:00,
2013-09-11 16:37:00,77.0,25.9,30.18,NNW,345,2.7,4.9,15,0.00,,---,0.00,VWS V14.01,2013-09-11 22:37:00,
2013-09-11 16:39:00,77.0,22.4,30.18,North,8,4.0,7.6,13,0.00,,---,0.00,VWS V14.01,2013-09-11 22:39:00,
2013-09-11 16:40:00,77.0,25.9,30.18,NW,305,4.9,4.9,15,0.00,,---,0.00,VWS V14.01,2013-09-11 22:40:00,
2013-09-11 16:41:00,77.0,25.9,30.18,NW,313,3.1,4.9,15,0.00,,---,0.00,VWS V14.01,2013-09-11 22:41:00,
2013-09-11 16:42:00,77.0,22.4,30.18,North,0,6.3,9.6,13,0.00,,---,0.00,VWS V14.01,2013-09-11 22:42:00,
2013-09-11 16:44:00,77.0,22.4,30.18,NNW,345,7.2,11.0,13,0.00,,---,0.00,VWS V14.01,2013-09-11 22:44:00,
2013-09-11 16:45:00,77.0,22.4,30.18,North,0,3.6,8.1,13,0.00,,---,0.00,VWS V14.01,2013-09-11 22:45:00,
2013-09-11 16:46:00,76.8,22.3,30.18,North,3,5.4,6.3,13,0.00,,---,0.00,VWS V14.01,2013-09-11 22:46:00,
2013-09-11 16:48:00,76.6,22.1,30.18,North,357,4.9,6.3,13,0.00,,---,0.00,VWS V14.01,2013-09-11 22:48:00,
2013-09-11 16:49:00,76.6,22.1,30.18,North,2,6.3,6.3,13,0.00,,---,0.00,VWS V14.01,2013-09-11 22:49:00,
2013-09-11 16:50:00,76.6,25.6,30.18,North,357,5.4,5.8,15,0.00,,---,0.00,VWS V14.01,2013-09-11 22:50:00,
2013-09-11 16:51:00,76.6,25.6,30.18,North,0,3.6,5.8,15,0.00,,---,0.00,VWS V14.01,2013-09-11 22:51:00,
2013-09-11 16:53:00,76.8,25.7,30.18,NE,34,5.4,5.4,15,0.00,,---,0.00,VWS V14.01,2013-09-11 22:53:00,
2013-09-11 16:54:00,76.8,25.7,30.18,North,350,2.7,6.3,15,0.00,,---,0.00,VWS V14.01,2013-09-11 22:54:00,
2013-09-11 16:55:00,76.8,25.7,30.18,NNE,21,4.9,5.8,15,0.00,,---,0.00,VWS V14.01,2013-09-11 22:55:00,
2013-09-11 16:56:00,76.8,25.7,30.18,NE,45,4.0,5.8,15,0.00,,---,0.00,VWS V14.01,2013-09-11 22:56:00,
2013-09-11 16:58:00,76.8,25.7,30.18,NNE,14,3.6,6.3,15,0.00,,---,0.00,VWS V14.01,2013-09-11 22:58:00,
2013-09-11 16:59:00,76.8,25.7,30.18,North,353,7.6,7.6,15,0.00,,---,0.00,VWS V14.01,2013-09-11 22:59:00,
2013-09-11 17:01:00,76.6,25.6,30.18,North,6,4.0,6.3,15,0.00,,---,0.00,VWS V14.01,2013-09-11 23:01:00,
2013-09-11 17:02:00,76.6,25.6,30.18,North,11,4.0,4.0,15,0.00,,---,0.00,VWS V14.01,2013-09-11 23:02:00,
2013-09-11 17:03:00,76.6,25.6,30.18,NNE,19,4.9,5.8,15,0.00,,---,0.00,VWS V14.01,2013-09-11 23:03:00,
2013-09-11 17:04:00,76.6,25.6,30.18,North,3,4.0,5.8,15,0.00,,---,0.00,VWS V14.01,2013-09-11 23:04:00,
2013-09-11 17:06:00,76.6,25.6,30.18,NNW,331,2.7,2.7,15,0.00,,---,0.00,VWS V14.01,2013-09-11 23:06:00,
2013-09-11 17:07:00,76.6,25.6,30.18,NW,322,3.1,3.1,15,0.00,,---,0.00,VWS V14.01,2013-09-11 23:07:00,
2013-09-11 17:08:00,76.8,25.7,30.18,North,349,4.0,4.0,15,0.00,,---,0.00,VWS V14.01,2013-09-11 23:08:00,
2013-09-11 17:09:00,76.8,25.7,30.18,North,357,3.6,4.0,15,0.00,,---,0.00,VWS V14.01,2013-09-11 23:09:00,
2013-09-11 17:11:00,77.0,25.9,30.18,North,0,4.0,4.0,15,0.00,,---,0.00,VWS V14.01,2013-09-11 23:11:00,
2013-09-11 17:12:00,77.2,26.0,30.18,West,274,3.1,4.5,15,0.00,,---,0.00,VWS V14.01,2013-09-11 23:12:00,
2013-09-11 17:13:00,77.2,26.0,30.18,North,0,3.6,6.3,15,0.00,,---,0.00,VWS V14.01,2013-09-11 23:13:00,
2013-09-11 17:14:00,77.2,26.0,30.18,NW,318,4.0,6.3,15,0.00,,---,0.00,VWS V14.01,2013-09-11 23:14:00,
2013-09-11 17:16:00,77.2,26.0,30.18,North,0,5.4,5.4,15,0.00,,---,0.00,VWS V14.01,2013-09-11 23:16:00,
2013-09-11 17:17:00,77.2,26.0,30.18,North,0,5.4,5.8,15,0.00,,---,0.00,VWS V14.01,2013-09-11 23:17:00,
2013-09-11 17:18:00,77.2,26.0,30.18,NE,43,6.3,6.3,15,0.00,,---,0.00,VWS V14.01,2013-09-11 23:18:00,
2013-09-11 17:19:00,77.2,26.0,30.18,North,357,3.6,4.0,15,0.00,,---,0.00,VWS V14.01,2013-09-11 23:19:00,
2013-09-11 17:22:00,77.0,25.9,30.18,North,353,5.4,5.8,15,0.00,,---,0.00,VWS V14.01,2013-09-11 23:22:00,
2013-09-11 17:23:00,77.0,25.9,30.18,North,357,6.3,6.3,15,0.00,,---,0.00,VWS V14.01,2013-09-11 23:23:00,
2013-09-11 17:24:00,77.0,25.9,30.18,North,4,3.6,5.8,15,0.00,,---,0.00,VWS V14.01,2013-09-11 23:24:00,
2013-09-11 17:27:00,77.0,25.9,30.18,North,8,3.1,4.0,15,0.00,,---,0.00,VWS V14.01,2013-09-11 23:27:00,
2013-09-11 17:29:00,77.0,25.9,30.18,NNW,334,5.8,5.8,15,0.00,,---,0.00,VWS V14.01,2013-09-11 23:29:00,
2013-09-11 17:33:00,77.0,25.9,30.18,NNW,345,5.4,5.4,15,0.00,,---,0.00,VWS V14.01,2013-09-11 23:33:00,
2013-09-11 17:34:00,76.8,25.7,30.18,North,5,4.9,5.4,15,0.00,,---,0.00,VWS V14.01,2013-09-11 23:34:00,
2013-09-11 17:38:00,76.6,25.6,30.18,NNE,18,5.4,5.4,15,0.00,,---,0.00,VWS V14.01,2013-09-11 23:38:00,
2013-09-11 17:39:00,76.6,25.6,30.18,North,10,5.4,6.3,15,0.00,,---,0.00,VWS V14.01,2013-09-11 23:39:00,
2013-09-11 17:40:00,76.6,25.6,30.18,North,4,4.0,5.8,15,0.00,,---,0.00,VWS V14.01,2013-09-11 23:40:00,
2013-09-11 17:44:00,76.3,25.3,30.18,North,5,3.6,5.4,15,0.00,,---,0.00,VWS V14.01,2013-09-11 23:44:00,
2013-09-11 17:45:00,76.3,25.3,30.18,North,5,3.6,4.0,15,0.00,,---,0.00,VWS V14.01,2013-09-11 23:45:00,
2013-09-11 17:49:00,76.1,29.6,30.18,NNE,23,5.4,5.4,18,0.00,,---,0.00,VWS V14.01,2013-09-11 23:49:00,
2013-09-11 17:50:00,76.1,29.6,30.18,NNE,16,5.4,5.4,18,0.00,,---,0.00,VWS V14.01,2013-09-11 23:50:00,
2013-09-11 17:55:00,76.1,29.6,30.18,North,0,3.1,7.6,18,0.00,,---,0.00,VWS V14.01,2013-09-11 23:55:00,
2013-09-11 18:00:00,76.1,29.6,30.18,North,349,5.4,5.4,18,0.00,,---,0.00,VWS V14.01,2013-09-12 00:00:00,
2013-09-11 18:05:00,76.5,25.4,30.18,North,353,7.6,8.1,15,0.00,,---,0.00,VWS V14.01,2013-09-12 00:05:00,
2013-09-11 18:06:00,76.5,25.4,30.18,North,357,6.3,6.3,15,0.00,,---,0.00,VWS V14.01,2013-09-12 00:06:00,
2013-09-11 18:10:00,76.5,25.4,30.18,NNW,335,3.1,3.6,15,0.00,,---,0.00,VWS V14.01,2013-09-12 00:10:00,
2013-09-11 18:11:00,76.5,25.4,30.18,NNW,340,5.4,5.4,15,0.00,,---,0.00,VWS V14.01,2013-09-12 00:11:00,
2013-09-11 18:15:00,76.6,25.6,30.18,North,353,3.1,6.3,15,0.00,,---,0.00,VWS V14.01,2013-09-12 00:15:00,
2013-09-11 18:16:00,76.6,25.6,30.18,NW,326,3.1,5.8,15,0.00,,---,0.00,VWS V14.01,2013-09-12 00:16:00,
2013-09-11 18:17:00,76.5,25.4,30.18,NNW,344,5.4,5.4,15,0.00,,---,0.00,VWS V14.01,2013-09-12 00:17:00,
2013-09-11 18:20:00,76.3,25.3,30.18,North,9,6.3,6.3,15,0.00,,---,0.00,VWS V14.01,2013-09-12 00:20:00,
2013-09-11 18:21:00,76.1,25.1,30.18,NNW,335,4.9,4.9,15,0.00,,---,0.00,VWS V14.01,2013-09-12 00:21:00,
2013-09-11 18:22:00,75.9,25.0,30.18,North,0,4.0,4.9,15,0.00,,---,0.00,VWS V14.01,2013-09-12 00:22:00,
2013-09-11 18:25:00,75.6,24.7,30.18,NW,326,3.1,3.6,15,0.00,,---,0.00,VWS V14.01,2013-09-12 00:25:00,
2013-09-11 18:27:00,75.6,24.7,30.18,North,349,4.9,5.4,15,0.00,,---,0.00,VWS V14.01,2013-09-12 00:27:00,
2013-09-11 18:30:00,75.2,24.4,30.18,North,357,4.0,4.0,15,0.00,,---,0.00,VWS V14.01,2013-09-12 00:30:00,
2013-09-11 18:32:00,75.2,24.4,30.18,NW,318,3.1,4.0,15,0.00,,---,0.00,VWS V14.01,2013-09-12 00:32:00,
2013-09-11 18:35:00,75.0,25.8,30.18,North,0,5.4,6.3,16,0.00,,---,0.00,VWS V14.01,2013-09-12 00:35:00,
2013-09-11 18:37:00,74.8,25.7,30.18,NNW,341,4.9,4.9,16,0.00,,---,0.00,VWS V14.01,2013-09-12 00:37:00,
2013-09-11 18:38:00,74.8,25.7,30.18,North,353,3.6,4.9,16,0.00,,---,0.00,VWS V14.01,2013-09-12 00:38:00,
2013-09-11 18:40:00,74.7,25.5,30.18,NNW,346,3.1,3.1,16,0.00,,---,0.00,VWS V14.01,2013-09-12 00:40:00,
2013-09-11 18:42:00,74.7,25.5,30.18,NNW,335,5.4,5.4,16,0.00,,---,0.00,VWS V14.01,2013-09-12 00:42:00,
2013-09-11 18:43:00,74.5,25.4,30.18,NNW,336,3.6,5.4,16,0.00,,---,0.00,VWS V14.01,2013-09-12 00:43:00,
2013-09-11 18:45:00,74.3,25.2,30.18,North,357,5.8,5.8,16,0.00,,---,0.00,VWS V14.01,2013-09-12 00:45:00,
2013-09-11 18:46:00,74.3,25.2,30.18,North,350,3.6,5.8,16,0.00,,---,0.00,VWS V14.01,2013-09-12 00:46:00,
2013-09-11 18:48:00,74.3,25.2,30.18,North,353,3.6,3.6,16,0.00,,---,0.00,VWS V14.01,2013-09-12 00:48:00,
2013-09-11 18:51:00,74.1,25.1,30.18,North,1,5.4,5.4,16,0.00,,---,0.00,VWS V14.01,2013-09-12 00:51:00,
2013-09-11 18:53:00,73.9,25.0,30.18,North,0,3.6,4.0,16,0.00,,---,0.00,VWS V14.01,2013-09-12 00:53:00,
2013-09-11 18:54:00,73.9,25.0,30.18,NNW,346,3.1,3.1,16,0.00,,---,0.00,VWS V14.01,2013-09-12 00:54:00,
2013-09-11 18:56:00,73.9,25.0,30.18,North,0,6.3,6.3,16,0.00,,---,0.00,VWS V14.01,2013-09-12 00:56:00,
2013-09-11 18:58:00,73.8,24.8,30.18,North,357,4.0,5.4,16,0.00,,---,0.00,VWS V14.01,2013-09-12 00:58:00,
2013-09-11 18:59:00,73.8,24.8,30.21,North,357,4.0,4.0,16,0.00,,---,0.00,VWS V14.01,2013-09-12 00:59:00,
2013-09-11 19:01:00,73.8,24.8,30.21,North,4,3.1,4.0,16,0.00,,---,0.00,VWS V14.01,2013-09-12 01:01:00,
2013-09-11 19:04:00,73.8,19.9,30.21,North,4,4.9,6.3,13,0.00,,---,0.00,VWS V14.01,2013-09-12 01:04:00,
2013-09-11 19:05:00,73.8,19.9,30.21,North,0,4.9,4.9,13,0.00,,---,0.00,VWS V14.01,2013-09-12 01:05:00,
2013-09-11 19:06:00,73.8,19.9,30.21,NNE,23,2.7,5.8,13,0.00,,---,0.00,VWS V14.01,2013-09-12 01:06:00,
2013-09-11 19:09:00,73.6,19.8,30.21,North,357,5.4,5.4,13,0.00,,---,0.00,VWS V14.01,2013-09-12 01:09:00,
2013-09-11 19:10:00,73.6,19.8,30.21,NE,44,3.1,5.4,13,0.00,,---,0.00,VWS V14.01,2013-09-12 01:10:00,
2013-09-11 19:11:00,73.6,19.8,30.21,NNE,24,3.1,4.0,13,0.00,,---,0.00,VWS V14.01,2013-09-12 01:11:00,
2013-09-11 19:14:00,73.4,19.6,30.21,NNE,14,3.6,4.0,13,0.00,,---,0.00,VWS V14.01,2013-09-12 01:14:00,
2013-09-11 19:15:00,73.4,19.6,30.21,NNW,343,2.7,4.0,13,0.00,,---,0.00,VWS V14.01,2013-09-12 01:15:00,
2013-09-11 19:16:00,73.2,21.2,30.21,NNE,14,2.7,3.1,14,0.00,,---,0.00,VWS V14.01,2013-09-12 01:16:00,
2013-09-11 19:19:00,73.0,21.1,30.21,NNE,12,3.1,3.1,14,0.00,,---,0.00,VWS V14.01,2013-09-12 01:19:00,
2013-09-11 19:20:00,73.0,21.1,30.21,NNE,15,2.7,3.1,14,0.00,,---,0.00,VWS V14.01,2013-09-12 01:20:00,
2013-09-11 19:21:00,72.9,20.9,30.21,North,5,2.2,3.1,14,0.00,,---,0.00,VWS V14.01,2013-09-12 01:21:00,
2013-09-11 19:26:00,72.5,20.6,30.21,North,8,3.1,3.1,14,0.00,,---,0.00,VWS V14.01,2013-09-12 01:26:00,
2013-09-11 19:32:00,72.0,23.4,30.21,North,350,2.7,3.1,16,0.00,,---,0.00,VWS V14.01,2013-09-12 01:32:00,
2013-09-11 19:37:00,71.6,23.1,30.21,North,0,3.1,3.6,16,0.00,,---,0.00,VWS V14.01,2013-09-12 01:37:00,
2013-09-11 19:39:00,71.4,24.4,30.21,North,357,2.7,3.1,17,0.00,,---,0.00,VWS V14.01,2013-09-12 01:39:00,
2013-09-11 19:42:00,71.2,24.2,30.21,North,357,0.0,0.0,17,0.00,,---,0.00,VWS V14.01,2013-09-12 01:42:00,
2013-09-11 19:44:00,71.1,24.1,30.21,North,357,2.2,2.2,17,0.00,,---,0.00,VWS V14.01,2013-09-12 01:44:00,
2013-09-11 19:47:00,70.7,23.8,30.21,North,350,2.7,2.7,17,0.00,,---,0.00,VWS V14.01,2013-09-12 01:47:00,
2013-09-11 19:48:00,70.5,23.6,30.21,NNW,341,3.1,3.1,17,0.00,,---,0.00,VWS V14.01,2013-09-12 01:48:00,
2013-09-11 19:49:00,70.3,23.5,30.21,NNW,337,3.1,3.1,17,0.00,,---,0.00,VWS V14.01,2013-09-12 01:49:00,
2013-09-11 19:52:00,70.2,26.0,30.21,NW,319,3.1,3.1,19,0.00,,---,0.00,VWS V14.01,2013-09-12 01:52:00,
2013-09-11 19:53:00,70.0,25.9,30.21,NW,318,2.7,3.1,19,0.00,,---,0.00,VWS V14.01,2013-09-12 01:53:00,
2013-09-11 19:54:00,70.0,25.9,30.21,NW,318,0.0,2.7,19,0.00,,---,0.00,VWS V14.01,2013-09-12 01:54:00,
2013-09-11 19:57:00,69.6,26.8,30.21,NW,312,2.7,2.7,20,0.00,,---,0.00,VWS V14.01,2013-09-12 01:57:00,
2013-09-11 19:58:00,69.4,26.7,30.21,NW,312,3.6,4.0,20,0.00,,---,0.00,VWS V14.01,2013-09-12 01:58:00,
2013-09-11 19:59:00,69.3,26.5,30.21,NW,312,2.7,3.6,20,0.00,,---,0.00,VWS V14.01,2013-09-12 01:59:00,
2013-09-11 20:02:00,68.9,26.2,30.21,WNW,302,2.7,2.7,20,0.00,,---,0.00,VWS V14.01,2013-09-12 02:02:00,
2013-09-11 20:03:00,68.7,28.4,30.21,WNW,303,2.2,3.1,22,0.00,,---,0.00,VWS V14.01,2013-09-12 02:03:00,
2013-09-11 20:04:00,68.5,28.2,30.21,WNW,303,2.7,2.7,22,0.00,,---,0.00,VWS V14.01,2013-09-12 02:04:00,
2013-09-11 20:05:00,68.4,28.1,30.21,NW,305,2.2,2.7,22,0.00,,---,0.00,VWS V14.01,2013-09-12 02:05:00,
2013-09-11 20:07:00,68.2,27.9,30.21,NW,305,0.0,2.2,22,0.00,,---,0.00,VWS V14.01,2013-09-12 02:07:00,
2013-09-11 20:08:00,68.0,27.8,30.21,NW,305,0.0,0.0,22,0.00,,---,0.00,VWS V14.01,2013-09-12 02:08:00,
2013-09-11 20:09:00,67.6,27.5,30.21,NW,305,0.0,0.0,22,0.00,,---,0.00,VWS V14.01,2013-09-12 02:09:00,
2013-09-11 20:11:00,67.5,27.3,30.21,NW,305,0.0,2.2,22,0.00,,---,0.00,VWS V14.01,2013-09-12 02:11:00,
2013-09-11 20:12:00,67.5,27.3,30.21,NW,305,0.0,0.0,22,0.00,,---,0.00,VWS V14.01,2013-09-12 02:12:00,
2013-09-11 20:13:00,67.3,27.2,30.21,NW,305,0.0,0.0,22,0.00,,---,0.00,VWS V14.01,2013-09-12 02:13:00,
2013-09-11 20:15:00,67.1,28.1,30.21,NW,305,0.0,0.0,23,0.00,,---,0.00,VWS V14.01,2013-09-12 02:15:00,
2013-09-11 20:16:00,66.9,27.9,30.21,NW,305,0.0,0.0,23,0.00,,---,0.00,VWS V14.01,2013-09-12 02:16:00,
2013-09-11 20:17:00,66.7,27.8,30.21,NW,305,0.0,0.0,23,0.00,,---,0.00,VWS V14.01,2013-09-12 02:17:00,
2013-09-11 20:18:00,66.7,27.8,30.21,NW,305,0.0,0.0,23,0.00,,---,0.00,VWS V14.01,2013-09-12 02:18:00,
2013-09-11 20:20:00,66.6,27.6,30.21,NW,305,0.0,0.0,23,0.00,,---,0.00,VWS V14.01,2013-09-12 02:20:00,
2013-09-11 20:21:00,66.6,27.6,30.21,NW,305,0.0,0.0,23,0.00,,---,0.00,VWS V14.01,2013-09-12 02:21:00,
2013-09-11 20:22:00,66.4,27.5,30.21,NW,305,0.0,0.0,23,0.00,,---,0.00,VWS V14.01,2013-09-12 02:22:00,
2013-09-11 20:23:00,66.4,27.5,30.21,NW,305,0.0,0.0,23,0.00,,---,0.00,VWS V14.01,2013-09-12 02:23:00,
2013-09-11 20:25:00,66.2,27.3,30.21,NW,305,0.0,0.0,23,0.00,,---,0.00,VWS V14.01,2013-09-12 02:25:00,
2013-09-11 20:26:00,66.2,27.3,30.21,NW,305,2.7,2.7,23,0.00,,---,0.00,VWS V14.01,2013-09-12 02:26:00,
2013-09-11 20:27:00,66.2,27.3,30.21,NW,305,0.0,2.2,23,0.00,,---,0.00,VWS V14.01,2013-09-12 02:27:00,
2013-09-11 20:28:00,66.2,27.3,30.21,NW,305,0.0,0.0,23,0.00,,---,0.00,VWS V14.01,2013-09-12 02:28:00,
2013-09-11 20:31:00,66.0,27.2,30.21,NW,305,0.0,0.0,23,0.00,,---,0.00,VWS V14.01,2013-09-12 02:31:00,
2013-09-11 20:32:00,66.0,27.2,30.21,NW,305,0.0,0.0,23,0.00,,---,0.00,VWS V14.01,2013-09-12 02:32:00,
2013-09-11 20:33:00,65.8,27.0,30.21,NW,305,0.0,0.0,23,0.00,,---,0.00,VWS V14.01,2013-09-12 02:33:00,
2013-09-11 20:36:00,65.8,27.0,30.21,NW,305,3.1,3.1,23,0.00,,---,0.00,VWS V14.01,2013-09-12 02:36:00,
2013-09-11 20:37:00,65.8,27.0,30.21,NW,305,2.2,3.1,23,0.00,,---,0.00,VWS V14.01,2013-09-12 02:37:00,
2013-09-11 20:38:00,65.8,27.0,30.21,NW,313,2.7,3.1,23,0.00,,---,0.00,VWS V14.01,2013-09-12 02:38:00,
2013-09-11 20:41:00,66.0,27.2,30.21,NW,318,0.0,2.7,23,0.00,,---,0.00,VWS V14.01,2013-09-12 02:41:00,
2013-09-11 20:42:00,66.0,27.2,30.21,NW,318,0.0,0.0,23,0.00,,---,0.00,VWS V14.01,2013-09-12 02:42:00,
2013-09-11 20:43:00,66.0,27.2,30.21,NW,318,0.0,0.0,23,0.00,,---,0.00,VWS V14.01,2013-09-12 02:43:00,
2013-09-11 20:46:00,65.8,27.0,30.21,NW,318,0.0,0.0,23,0.00,,---,0.00,VWS V14.01,2013-09-12 02:46:00,
2013-09-11 20:47:00,65.8,27.0,30.21,NW,318,0.0,0.0,23,0.00,,---,0.00,VWS V14.01,2013-09-12 02:47:00,
2013-09-11 20:48:00,65.7,26.9,30.21,NW,318,0.0,0.0,23,0.00,,---,0.00,VWS V14.01,2013-09-12 02:48:00,
2013-09-11 20:52:00,65.1,26.4,30.21,NW,318,0.0,0.0,23,0.00,,---,0.00,VWS V14.01,2013-09-12 02:52:00,
2013-09-11 20:53:00,64.9,27.3,30.21,NW,318,0.0,0.0,24,0.00,,---,0.00,VWS V14.01,2013-09-12 02:53:00,
2013-09-11 20:54:00,64.8,26.1,30.21,NW,318,0.0,0.0,23,0.00,,---,0.00,VWS V14.01,2013-09-12 02:54:00,
2013-09-11 20:57:00,64.6,27.0,30.21,WNW,299,0.0,0.0,24,0.00,,---,0.00,VWS V14.01,2013-09-12 02:57:00,
2013-09-11 20:58:00,64.6,27.0,30.21,WSW,247,2.2,2.7,24,0.00,,---,0.00,VWS V14.01,2013-09-12 02:58:00,
2013-09-11 20:59:00,64.4,26.9,30.21,SSW,204,2.7,2.7,24,0.00,,---,0.00,VWS V14.01,2013-09-12 02:59:00,
2013-09-11 21:02:00,64.2,27.7,30.21,SSW,200,0.0,2.2,25,0.00,,---,0.00,VWS V14.01,2013-09-12 03:02:00,
2013-09-11 21:03:00,64.2,27.7,30.21,South,191,0.0,0.0,25,0.00,,---,0.00,VWS V14.01,2013-09-12 03:03:00,
2013-09-11 21:05:00,64.0,27.5,30.21,South,186,0.0,0.0,25,0.00,,---,0.00,VWS V14.01,2013-09-12 03:05:00,
2013-09-11 21:07:00,63.9,27.4,30.21,South,186,0.0,0.0,25,0.00,,---,0.00,VWS V14.01,2013-09-12 03:07:00,
2013-09-11 21:08:00,63.9,27.4,30.21,South,186,0.0,0.0,25,0.00,,---,0.00,VWS V14.01,2013-09-12 03:08:00,
2013-09-11 21:09:00,63.9,27.4,30.21,South,186,0.0,0.0,25,0.00,,---,0.00,VWS V14.01,2013-09-12 03:09:00,
2013-09-11 21:10:00,63.9,27.4,30.21,South,186,0.0,0.0,25,0.00,,---,0.00,VWS V14.01,2013-09-12 03:10:00,
2013-09-11 21:13:00,63.7,27.2,30.21,South,186,0.0,0.0,25,0.00,,---,0.00,VWS V14.01,2013-09-12 03:13:00,
2013-09-11 21:14:00,63.7,27.2,30.21,South,186,0.0,0.0,25,0.00,,---,0.00,VWS V14.01,2013-09-12 03:14:00,
2013-09-11 21:15:00,63.5,27.1,30.21,South,186,0.0,0.0,25,0.00,,---,0.00,VWS V14.01,2013-09-12 03:15:00,
2013-09-11 21:18:00,63.7,27.2,30.21,South,186,2.7,2.7,25,0.00,,---,0.00,VWS V14.01,2013-09-12 03:18:00,
2013-09-11 21:19:00,63.7,27.2,30.21,South,186,2.2,2.2,25,0.00,,---,0.00,VWS V14.01,2013-09-12 03:19:00,
2013-09-11 21:20:00,63.7,27.2,30.21,South,186,2.2,2.7,25,0.00,,---,0.00,VWS V14.01,2013-09-12 03:20:00,
2013-09-11 21:23:00,63.5,27.1,30.21,South,186,0.0,0.0,25,0.00,,---,0.00,VWS V14.01,2013-09-12 03:23:00,
2013-09-11 21:24:00,63.5,27.1,30.21,South,186,0.0,0.0,25,0.00,,---,0.00,VWS V14.01,2013-09-12 03:24:00,
2013-09-11 21:26:00,63.1,26.8,30.21,South,185,2.7,2.7,25,0.00,,---,0.00,VWS V14.01,2013-09-12 03:26:00,
2013-09-11 21:28:00,62.8,27.4,30.21,South,185,0.0,2.2,26,0.00,,---,0.00,VWS V14.01,2013-09-12 03:28:00,
2013-09-11 21:29:00,62.8,27.4,30.21,South,185,0.0,0.0,26,0.00,,---,0.00,VWS V14.01,2013-09-12 03:29:00,
2013-09-11 21:33:00,62.2,27.0,30.21,South,185,0.0,0.0,26,0.00,,---,0.00,VWS V14.01,2013-09-12 03:33:00,
2013-09-11 21:34:00,62.2,27.9,30.21,SSE,154,2.2,2.7,27,0.00,,---,0.00,VWS V14.01,2013-09-12 03:34:00,
2013-09-11 21:35:00,62.2,27.9,30.21,South,184,2.2,2.7,27,0.00,,---,0.00,VWS V14.01,2013-09-12 03:35:00,
2013-09-11 21:38:00,61.9,27.6,30.21,South,184,0.0,0.0,27,0.00,,---,0.00,VWS V14.01,2013-09-12 03:38:00,
2013-09-11 21:39:00,61.9,27.6,30.21,South,184,0.0,0.0,27,0.00,,---,0.00,VWS V14.01,2013-09-12 03:39:00,
2013-09-11 21:40:00,61.7,27.4,30.21,South,184,0.0,0.0,27,0.00,,---,0.00,VWS V14.01,2013-09-12 03:40:00,
2013-09-11 21:43:00,61.7,27.4,30.21,South,184,0.0,0.0,27,0.00,,---,0.00,VWS V14.01,2013-09-12 03:43:00,
2013-09-11 21:44:00,61.7,27.4,30.21,South,184,0.0,0.0,27,0.00,,---,0.00,VWS V14.01,2013-09-12 03:44:00,
2013-09-11 21:45:00,61.7,27.4,30.21,South,184,0.0,0.0,27,0.00,,---,0.00,VWS V14.01,2013-09-12 03:45:00,
2013-09-11 21:48:00,61.9,27.6,30.21,NNW,346,2.7,3.1,27,0.00,,---,0.00,VWS V14.01,2013-09-12 03:48:00,
2013-09-11 21:49:00,62.1,27.7,30.21,NNW,348,2.2,2.7,27,0.00,,---,0.00,VWS V14.01,2013-09-12 03:49:00,
2013-09-11 21:50:00,62.2,27.9,30.21,NE,38,0.0,2.2,27,0.00,,---,0.00,VWS V14.01,2013-09-12 03:50:00,
2013-09-11 21:53:00,62.8,28.3,30.21,SSE,160,0.0,2.7,27,0.00,,---,0.00,VWS V14.01,2013-09-12 03:53:00,
2013-09-11 21:54:00,62.8,28.3,30.21,SSE,160,0.0,0.0,27,0.00,,---,0.00,VWS V14.01,2013-09-12 03:54:00,
2013-09-11 21:55:00,62.6,27.3,30.21,SSE,164,2.7,2.7,26,0.00,,---,0.00,VWS V14.01,2013-09-12 03:55:00,
2013-09-11 21:56:00,62.6,27.3,30.21,SSW,192,2.7,2.7,26,0.00,,---,0.00,VWS V14.01,2013-09-12 03:56:00,
2013-09-11 21:58:00,63.0,28.5,30.21,SSW,192,0.0,0.0,27,0.00,,---,0.00,VWS V14.01,2013-09-12 03:58:00,
2013-09-11 21:59:00,63.0,28.5,30.21,SSW,192,0.0,0.0,27,0.00,,---,0.00,VWS V14.01,2013-09-12 03:59:00,
2013-09-11 22:00:00,63.1,28.6,30.21,SSW,192,0.0,0.0,27,0.00,,---,0.00,VWS V14.01,2013-09-12 04:00:00,
2013-09-11 22:01:00,63.1,28.6,30.21,SSW,192,0.0,0.0,27,0.00,,---,0.00,VWS V14.01,2013-09-12 04:01:00,
2013-09-11 22:02:00,63.1,27.7,30.21,SSW,192,0.0,0.0,26,0.00,,---,0.00,VWS V14.01,2013-09-12 04:02:00,
2013-09-11 22:06:00,63.3,28.8,30.21,SSW,192,0.0,0.0,27,0.00,,---,0.00,VWS V14.01,2013-09-12 04:06:00,
2013-09-11 22:07:00,63.3,28.8,30.21,SSW,192,0.0,2.7,27,0.00,,---,0.00,VWS V14.01,2013-09-12 04:07:00,
2013-09-11 22:11:00,64.0,29.4,30.21,North,357,3.6,4.5,27,0.00,,---,0.00,VWS V14.01,2013-09-12 04:11:00,
2013-09-11 22:12:00,64.2,29.6,30.21,North,357,0.0,2.7,27,0.00,,---,0.00,VWS V14.01,2013-09-12 04:12:00,
2013-09-11 22:16:00,65.1,29.4,30.21,NNW,329,3.6,4.0,26,0.00,,---,0.00,VWS V14.01,2013-09-12 04:16:00,
2013-09-11 22:17:00,65.5,29.7,30.21,NNW,329,0.0,0.0,26,0.00,,---,0.00,VWS V14.01,2013-09-12 04:17:00,
2013-09-11 22:21:00,65.5,29.7,30.21,SE,126,3.6,3.6,26,0.00,,---,0.00,VWS V14.01,2013-09-12 04:21:00,
2013-09-11 22:22:00,65.1,29.4,30.21,SE,126,0.0,0.0,26,0.00,,---,0.00,VWS V14.01,2013-09-12 04:22:00,
2013-09-11 22:26:00,64.0,28.5,30.21,SE,126,0.0,0.0,26,0.00,,---,0.00,VWS V14.01,2013-09-12 04:26:00,
2013-09-11 22:27:00,63.9,28.3,30.21,SE,131,2.7,2.7,26,0.00,,---,0.00,VWS V14.01,2013-09-12 04:27:00,
2013-09-11 22:31:00,63.3,28.8,30.21,SE,131,2.7,2.7,27,0.00,,---,0.00,VWS V14.01,2013-09-12 04:31:00,
2013-09-11 22:32:00,63.1,28.6,30.21,SE,138,2.7,2.7,27,0.00,,---,0.00,VWS V14.01,2013-09-12 04:32:00,
2013-09-11 22:33:00,63.1,28.6,30.21,SE,144,3.1,3.1,27,0.00,,---,0.00,VWS V14.01,2013-09-12 04:33:00,
2013-09-11 22:36:00,63.1,27.7,30.21,ESE,123,2.2,2.7,26,0.00,,---,0.00,VWS V14.01,2013-09-12 04:36:00,
2013-09-11 22:38:00,63.3,27.9,30.21,NNW,339,4.0,4.0,26,0.00,,---,0.00,VWS V14.01,2013-09-12 04:38:00,
2013-09-11 22:41:00,63.9,28.3,30.21,North,353,2.7,4.0,26,0.00,,---,0.00,VWS V14.01,2013-09-12 04:41:00,
2013-09-11 22:43:00,64.4,27.8,30.21,North,0,3.1,3.1,25,0.00,,---,0.00,VWS V14.01,2013-09-12 04:43:00,
2013-09-11 22:44:00,64.4,27.8,30.21,North,0,2.2,3.1,25,0.00,,---,0.00,VWS V14.01,2013-09-12 04:44:00,
2013-09-11 22:46:00,64.6,28.0,30.21,North,0,0.0,0.0,25,0.00,,---,0.00,VWS V14.01,2013-09-12 04:46:00,
2013-09-11 22:47:00,64.6,28.0,30.21,North,0,3.1,3.1,25,0.00,,---,0.00,VWS V14.01,2013-09-12 04:47:00,
2013-09-11 22:48:00,64.6,28.0,30.21,North,0,0.0,0.0,25,0.00,,---,0.00,VWS V14.01,2013-09-12 04:48:00,
2013-09-11 22:49:00,64.6,28.0,30.21,North,353,2.2,2.2,25,0.00,,---,0.00,VWS V14.01,2013-09-12 04:49:00,
2013-09-11 22:50:00,64.6,28.0,30.21,West,281,2.2,2.7,25,0.00,,---,0.00,VWS V14.01,2013-09-12 04:50:00,
2013-09-11 22:51:00,64.4,27.8,30.21,West,281,0.0,2.2,25,0.00,,---,0.00,VWS V14.01,2013-09-12 04:51:00,
2013-09-11 22:52:00,64.2,28.6,30.21,West,281,0.0,0.0,26,0.00,,---,0.00,VWS V14.01,2013-09-12 04:52:00,
2013-09-11 22:53:00,63.9,28.3,30.21,West,281,0.0,0.0,26,0.00,,---,0.00,VWS V14.01,2013-09-12 04:53:00,
2013-09-11 22:54:00,63.9,28.3,30.21,West,281,2.2,2.2,26,0.00,,---,0.00,VWS V14.01,2013-09-12 04:54:00,
2013-09-11 22:55:00,63.9,28.3,30.21,West,281,0.0,3.1,26,0.00,,---,0.00,VWS V14.01,2013-09-12 04:55:00,
2013-09-11 22:57:00,63.5,28.0,30.21,West,281,0.0,0.0,26,0.00,,---,0.00,VWS V14.01,2013-09-12 04:57:00,
2013-09-11 22:58:00,63.5,28.0,30.21,West,281,2.7,2.7,26,0.00,,---,0.00,VWS V14.01,2013-09-12 04:58:00,
2013-09-11 23:00:00,63.5,28.0,30.21,NW,326,2.7,3.6,26,0.00,,---,0.00,VWS V14.01,2013-09-12 05:00:00,
2013-09-11 23:01:00,63.5,28.0,30.21,NNW,338,2.7,3.1,26,0.00,,---,0.00,VWS V14.01,2013-09-12 05:01:00,
2013-09-11 23:02:00,63.7,29.1,30.21,NNW,345,3.6,3.6,27,0.00,,---,0.00,VWS V14.01,2013-09-12 05:02:00,
2013-09-11 23:04:00,64.2,29.6,30.21,North,357,4.0,4.5,27,0.00,,---,0.00,VWS V14.01,2013-09-12 05:04:00,
2013-09-11 23:06:00,64.6,29.9,30.21,North,11,4.0,4.0,27,0.00,,---,0.00,VWS V14.01,2013-09-12 05:06:00,
2013-09-11 23:07:00,64.6,29.0,30.21,North,353,4.9,4.9,26,0.00,,---,0.00,VWS V14.01,2013-09-12 05:07:00,
2013-09-11 23:10:00,64.9,29.3,30.21,North,357,3.1,4.9,26,0.00,,---,0.00,VWS V14.01,2013-09-12 05:10:00,
2013-09-11 23:11:00,65.1,29.4,30.21,North,4,3.1,3.1,26,0.00,,---,0.00,VWS V14.01,2013-09-12 05:11:00,
2013-09-11 23:12:00,65.1,29.4,30.21,North,9,3.1,3.1,26,0.00,,---,0.00,VWS V14.01,2013-09-12 05:12:00,
2013-09-11 23:15:00,65.5,29.7,30.21,North,357,3.1,3.1,26,0.00,,---,0.00,VWS V14.01,2013-09-12 05:15:00,
2013-09-11 23:17:00,65.5,29.7,30.21,North,357,0.0,2.2,26,0.00,,---,0.00,VWS V14.01,2013-09-12 05:17:00,
2013-09-11 23:20:00,65.1,29.4,30.21,ESE,114,0.0,0.0,26,0.00,,---,0.00,VWS V14.01,2013-09-12 05:20:00,
2013-09-11 23:22:00,64.6,29.0,30.21,ESE,114,2.2,2.2,26,0.00,,---,0.00,VWS V14.01,2013-09-12 05:22:00,
2013-09-11 23:24:00,64.0,29.4,30.21,NE,43,3.1,3.1,27,0.00,,---,0.00,VWS V14.01,2013-09-12 05:24:00,
2013-09-11 23:25:00,63.9,29.3,30.21,North,9,3.1,3.1,27,0.00,,---,0.00,VWS V14.01,2013-09-12 05:25:00,
2013-09-11 23:27:00,63.9,29.3,30.21,North,353,3.1,4.0,27,0.00,,---,0.00,VWS V14.01,2013-09-12 05:27:00,
2013-09-11 23:28:00,64.0,29.4,30.21,North,0,3.1,3.1,27,0.00,,---,0.00,VWS V14.01,2013-09-12 05:28:00,
2013-09-11 23:29:00,64.0,29.4,30.21,WNW,303,2.7,2.7,27,0.00,,---,0.00,VWS V14.01,2013-09-12 05:29:00,
2013-09-11 23:31:00,64.0,29.4,30.21,NW,305,3.1,3.1,27,0.00,,---,0.00,VWS V14.01,2013-09-12 05:31:00,
2013-09-11 23:32:00,63.9,29.3,30.21,NW,305,2.2,3.1,27,0.00,,---,0.00,VWS V14.01,2013-09-12 05:32:00,
2013-09-11 23:33:00,63.9,29.3,30.21,NW,307,2.2,2.7,27,0.00,,---,0.00,VWS V14.01,2013-09-12 05:33:00,
2013-09-11 23:34:00,63.7,29.1,30.21,NW,307,2.2,2.2,27,0.00,,---,0.00,VWS V14.01,2013-09-12 05:34:00,
2013-09-11 23:36:00,63.5,29.0,30.21,NW,306,2.7,2.7,27,0.00,,---,0.00,VWS V14.01,2013-09-12 05:36:00,
2013-09-11 23:37:00,63.5,29.0,30.21,NW,306,2.7,2.7,27,0.00,,---,0.00,VWS V14.01,2013-09-12 05:37:00,
2013-09-11 23:38:00,63.5,29.0,30.21,NW,306,2.7,2.7,27,0.00,,---,0.00,VWS V14.01,2013-09-12 05:38:00,
2013-09-11 23:39:00,63.3,28.8,30.21,NW,306,0.0,2.7,27,0.00,,---,0.00,VWS V14.01,2013-09-12 05:39:00,
2013-09-11 23:41:00,63.1,29.5,30.21,NW,306,0.0,0.0,28,0.00,,---,0.00,VWS V14.01,2013-09-12 05:41:00,
2013-09-11 23:42:00,63.0,29.4,30.21,NW,306,0.0,0.0,28,0.00,,---,0.00,VWS V14.01,2013-09-12 05:42:00,
2013-09-11 23:43:00,63.0,29.4,30.21,NW,306,0.0,0.0,28,0.00,,---,0.00,VWS V14.01,2013-09-12 05:43:00,
2013-09-11 23:45:00,62.8,29.2,30.21,NW,306,2.2,2.2,28,0.00,,---,0.00,VWS V14.01,2013-09-12 05:45:00,
2013-09-11 23:46:00,62.6,29.1,30.21,NW,306,0.0,0.0,28,0.00,,---,0.00,VWS V14.01,2013-09-12 05:46:00,
2013-09-11 23:47:00,62.4,28.9,30.21,NW,306,0.0,2.7,28,0.00,,---,0.00,VWS V14.01,2013-09-12 05:47:00,
2013-09-11 23:48:00,62.4,28.9,30.21,NW,306,0.0,2.7,28,0.00,,---,0.00,VWS V14.01,2013-09-12 05:48:00,
2013-09-11 23:50:00,62.2,29.6,30.21,NW,306,0.0,0.0,29,0.00,,---,0.00,VWS V14.01,2013-09-12 05:50:00,
2013-09-11 23:52:00,62.1,29.5,30.21,West,279,0.0,0.0,29,0.00,,---,0.00,VWS V14.01,2013-09-12 05:52:00,
2013-09-11 23:53:00,62.1,30.3,30.21,West,269,2.2,2.7,30,0.00,,---,0.00,VWS V14.01,2013-09-12 05:53:00,
2013-09-11 23:54:00,61.9,30.1,30.21,West,269,0.0,0.0,30,0.00,,---,0.00,VWS V14.01,2013-09-12 05:54:00,
2013-09-11 23:55:00,61.7,30.0,30.21,West,269,0.0,0.0,30,0.00,,---,0.00,VWS V14.01,2013-09-12 05:55:00,
2013-09-11 23:57:00,61.7,30.0,30.21,West,269,0.0,0.0,30,0.00,,---,0.00,VWS V14.01,2013-09-12 05:57:00,
2013-09-11 23:58:00,61.5,29.8,30.21,WNW,295,2.2,2.7,30,0.00,,---,0.00,VWS V14.01,2013-09-12 05:58:00,
2013-09-11 23:59:00,61.5,29.8,30.21,WNW,295,0.0,0.0,30,0.00,,---,0.00,VWS V14.01,2013-09-12 05:59:00,